Time,TemperatureF,DewpointF,PressureIn,WindDirection,WindDirectionDegrees,WindSpeedMPH,WindSpeedGustMPH,Humidity,HourlyPrecipIn,Conditions,Clouds,dailyrainin,SoftwareType,DateUTC
2013-06-09 00:00:00,65.7,56.8,29.91,SE,134,0.0,2.0,73,0.00,,SCT120,0.00,VWS V14.01,2013-06-09 05:00:00,
2013-06-09 00:02:00,65.5,57.0,29.91,SE,134,0.0,0.0,74,0.00,,CLR,0.00,VWS V14.01,2013-06-09 05:02:00,
2013-06-09 00:03:00,65.5,57.0,29.91,SE,134,0.0,0.0,74,0.00,,CLR,0.00,VWS V14.01,2013-06-09 05:03:00,
2013-06-09 00:04:00,65.5,57.0,29.91,SE,134,0.0,0.0,74,0.00,,CLR,0.00,VWS V14.01,2013-06-09 05:04:00,
2013-06-09 00:07:00,65.4,56.9,29.91,SE,134,0.0,0.0,74,0.00,,CLR,0.00,VWS V14.01,2013-06-09 05:07:00,
2013-06-09 00:08:00,65.4,57.3,29.91,SE,134,0.0,0.0,75,0.00,,CLR,0.00,VWS V14.01,2013-06-09 05:08:00,
2013-06-09 00:09:00,65.2,57.1,29.91,SE,134,0.0,0.0,75,0.00,,CLR,0.00,VWS V14.01,2013-06-09 05:09:00,
2013-06-09 00:12:00,65.1,57.0,29.91,SE,134,0.0,0.0,75,0.00,,CLR,0.00,VWS V14.01,2013-06-09 05:12:00,
2013-06-09 00:13:00,65.1,57.0,29.91,SE,134,0.0,0.0,75,0.00,,CLR,0.00,VWS V14.01,2013-06-09 05:13:00,
2013-06-09 00:14:00,65.1,57.0,29.91,SE,134,0.0,0.0,75,0.00,,CLR,0.00,VWS V14.01,2013-06-09 05:14:00,
2013-06-09 00:17:00,64.9,57.2,29.91,SE,134,0.0,0.0,76,0.00,,CLR,0.00,VWS V14.01,2013-06-09 05:17:00,
2013-06-09 00:18:00,64.9,57.2,29.91,SE,134,0.0,0.0,76,0.00,,CLR,0.00,VWS V14.01,2013-06-09 05:18:00,
2013-06-09 00:19:00,64.7,57.0,29.91,SE,134,0.0,0.0,76,0.00,,CLR,0.00,VWS V14.01,2013-06-09 05:19:00,
2013-06-09 00:22:00,64.6,57.2,29.91,SE,134,0.0,0.0,77,0.00,,CLR,0.00,VWS V14.01,2013-06-09 05:22:00,
2013-06-09 00:23:00,64.6,57.2,29.91,SE,134,0.0,0.0,77,0.00,,CLR,0.00,VWS V14.01,2013-06-09 05:23:00,
2013-06-09 00:24:00,64.6,57.2,29.91,SE,134,0.0,0.0,77,0.00,,CLR,0.00,VWS V14.01,2013-06-09 05:24:00,
2013-06-09 00:27:00,64.4,57.0,29.91,SE,134,0.0,0.0,77,0.00,,CLR,0.00,VWS V14.01,2013-06-09 05:27:00,
2013-06-09 00:28:00,64.4,57.0,29.91,SE,134,0.0,0.0,77,0.00,,CLR,0.00,VWS V14.01,2013-06-09 05:28:00,
2013-06-09 00:29:00,64.2,57.2,29.91,SE,134,0.0,0.0,78,0.00,,CLR,0.00,VWS V14.01,2013-06-09 05:29:00,
2013-06-09 00:30:00,64.2,57.2,29.90,SE,134,0.0,0.0,78,0.00,,SCT120,0.00,VWS V14.01,2013-06-09 05:30:00,
2013-06-09 00:32:00,64.2,57.2,29.90,SE,134,0.0,0.0,78,0.00,,CLR,0.00,VWS V14.01,2013-06-09 05:32:00,
2013-06-09 00:33:00,64.1,57.1,29.90,SE,135,0.0,0.0,78,0.00,,CLR,0.00,VWS V14.01,2013-06-09 05:33:00,
2013-06-09 00:34:00,64.1,57.1,29.90,SE,135,0.0,0.0,78,0.00,,CLR,0.00,VWS V14.01,2013-06-09 05:34:00,
2013-06-09 00:38:00,64.1,57.1,29.90,SE,135,0.0,0.0,78,0.00,,CLR,0.00,VWS V14.01,2013-06-09 05:38:00,
2013-06-09 00:39:00,64.1,57.1,29.90,SE,135,0.0,0.0,78,0.00,,CLR,0.00,VWS V14.01,2013-06-09 05:39:00,
2013-06-09 00:43:00,64.1,57.1,29.90,SE,135,0.0,0.0,78,0.00,,CLR,0.00,VWS V14.01,2013-06-09 05:43:00,
2013-06-09 00:44:00,64.2,57.2,29.90,SE,130,0.0,0.0,78,0.00,,CLR,0.00,VWS V14.01,2013-06-09 05:44:00,
2013-06-09 00:45:00,64.2,57.2,29.89,SE,130,0.0,0.0,78,0.00,,CLR,0.00,VWS V14.01,2013-06-09 05:45:00,
2013-06-09 00:48:00,64.4,57.0,29.89,SE,133,0.0,1.0,77,0.00,,CLR,0.00,VWS V14.01,2013-06-09 05:48:00,
2013-06-09 00:49:00,64.4,57.0,29.89,SE,133,0.0,1.0,77,0.00,,CLR,0.00,VWS V14.01,2013-06-09 05:49:00,
2013-06-09 00:50:00,64.4,57.0,29.89,SE,133,0.0,1.0,77,0.00,,CLR,0.00,VWS V14.01,2013-06-09 05:50:00,
2013-06-09 00:53:00,64.6,57.2,29.89,SE,133,0.0,1.0,77,0.00,,CLR,0.00,VWS V14.01,2013-06-09 05:53:00,
2013-06-09 00:54:00,64.7,57.3,29.89,SE,133,0.0,1.0,77,0.00,,CLR,0.00,VWS V14.01,2013-06-09 05:54:00,
2013-06-09 00:55:00,64.7,57.3,29.89,SE,133,0.0,1.0,77,0.00,,CLR,0.00,VWS V14.01,2013-06-09 05:55:00,
2013-06-09 00:58:00,64.9,57.2,29.89,SE,133,0.0,1.0,76,0.00,,CLR,0.00,VWS V14.01,2013-06-09 05:58:00,
2013-06-09 00:59:00,64.9,57.2,29.89,SE,133,0.0,1.0,76,0.00,,CLR,0.00,VWS V14.01,2013-06-09 05:59:00,
2013-06-09 01:00:00,64.9,57.2,29.89,SE,131,0.0,1.0,76,0.00,,CLR,0.00,VWS V14.01,2013-06-09 06:00:00,
2013-06-09 01:03:00,65.1,57.4,29.89,SE,133,0.0,0.0,76,0.00,,CLR,0.00,VWS V14.01,2013-06-09 06:03:00,
2013-06-09 01:04:00,65.1,57.0,29.89,SE,133,0.0,2.0,75,0.00,,CLR,0.00,VWS V14.01,2013-06-09 06:04:00,
2013-06-09 01:05:00,65.1,57.0,29.89,SE,133,0.0,2.0,75,0.00,,CLR,0.00,VWS V14.01,2013-06-09 06:05:00,
2013-06-09 01:08:00,65.2,57.1,29.89,SE,133,0.0,2.0,75,0.00,,CLR,0.00,VWS V14.01,2013-06-09 06:08:00,
2013-06-09 01:09:00,65.2,57.1,29.89,SE,133,0.0,2.0,75,0.00,,CLR,0.00,VWS V14.01,2013-06-09 06:09:00,
2013-06-09 01:10:00,65.2,57.1,29.89,SE,146,0.0,4.0,75,0.00,,CLR,0.00,VWS V14.01,2013-06-09 06:10:00,
2013-06-09 01:13:00,65.4,57.3,29.89,SSE,147,0.0,4.0,75,0.00,,CLR,0.00,VWS V14.01,2013-06-09 06:13:00,
2013-06-09 01:15:00,65.4,57.3,29.89,SSE,147,0.0,4.0,75,0.00,,CLR,0.00,VWS V14.01,2013-06-09 06:15:00,
2013-06-09 01:18:00,65.4,57.3,29.89,SSE,147,0.0,4.0,75,0.00,,CLR,0.00,VWS V14.01,2013-06-09 06:18:00,
2013-06-09 01:20:00,65.4,57.3,29.89,SSE,147,0.0,4.0,75,0.00,,CLR,0.00,VWS V14.01,2013-06-09 06:20:00,
2013-06-09 01:21:00,65.2,57.1,29.89,SSE,147,0.0,4.0,75,0.00,,CLR,0.00,VWS V14.01,2013-06-09 06:21:00,
2013-06-09 01:23:00,65.2,57.1,29.89,SSE,159,0.0,4.0,75,0.00,,CLR,0.00,VWS V14.01,2013-06-09 06:23:00,
2013-06-09 01:25:00,65.2,57.5,29.89,SSE,159,0.0,4.0,76,0.00,,CLR,0.00,VWS V14.01,2013-06-09 06:25:00,
2013-06-09 01:26:00,65.2,57.5,29.89,SSE,159,0.0,4.0,76,0.00,,CLR,0.00,VWS V14.01,2013-06-09 06:26:00,
2013-06-09 01:28:00,65.2,57.5,29.89,SSE,159,0.0,4.0,76,0.00,,CLR,0.00,VWS V14.01,2013-06-09 06:28:00,
2013-06-09 01:30:00,65.2,57.5,29.88,SSE,159,0.0,4.0,76,0.00,,CLR,0.00,VWS V14.01,2013-06-09 06:30:00,
2013-06-09 01:32:00,65.2,57.5,29.88,SSE,159,0.0,0.0,76,0.00,,CLR,0.00,VWS V14.01,2013-06-09 06:32:00,
2013-06-09 01:34:00,65.2,57.5,29.88,SSE,159,0.0,0.0,76,0.00,,CLR,0.00,VWS V14.01,2013-06-09 06:34:00,
2013-06-09 01:35:00,65.2,57.5,29.88,SSE,148,0.0,1.0,76,0.00,,CLR,0.00,VWS V14.01,2013-06-09 06:35:00,
2013-06-09 01:36:00,65.2,57.5,29.88,SSE,147,0.0,1.0,76,0.00,,CLR,0.00,VWS V14.01,2013-06-09 06:36:00,
2013-06-09 01:37:00,65.1,57.4,29.88,SSE,147,0.0,1.0,76,0.00,,CLR,0.00,VWS V14.01,2013-06-09 06:37:00,
2013-06-09 01:39:00,65.1,57.4,29.88,ESE,110,0.0,2.0,76,0.00,,CLR,0.00,VWS V14.01,2013-06-09 06:39:00,
2013-06-09 01:40:00,65.1,57.4,29.88,ESE,110,0.0,2.0,76,0.00,,CLR,0.00,VWS V14.01,2013-06-09 06:40:00,
2013-06-09 01:41:00,65.1,57.4,29.88,ESE,110,0.0,2.0,76,0.00,,CLR,0.00,VWS V14.01,2013-06-09 06:41:00,
2013-06-09 01:42:00,65.1,57.0,29.88,ESE,110,0.0,2.0,75,0.00,,CLR,0.00,VWS V14.01,2013-06-09 06:42:00,
2013-06-09 01:44:00,65.1,57.0,29.88,ESE,110,0.0,2.0,75,0.00,,CLR,0.00,VWS V14.01,2013-06-09 06:44:00,
2013-06-09 01:45:00,65.1,57.0,29.88,ESE,115,0.0,2.0,75,0.00,,CLR,0.00,VWS V14.01,2013-06-09 06:45:00,
2013-06-09 01:46:00,65.1,57.0,29.88,SE,126,0.0,2.0,75,0.00,,CLR,0.00,VWS V14.01,2013-06-09 06:46:00,
2013-06-09 01:47:00,65.2,57.1,29.88,SE,126,0.0,2.0,75,0.00,,CLR,0.00,VWS V14.01,2013-06-09 06:47:00,
2013-06-09 01:49:00,65.2,57.1,29.88,SE,126,0.0,2.0,75,0.00,,CLR,0.00,VWS V14.01,2013-06-09 06:49:00,
2013-06-09 01:50:00,65.2,57.1,29.88,SE,126,0.0,2.0,75,0.00,,CLR,0.00,VWS V14.01,2013-06-09 06:50:00,
2013-06-09 01:51:00,65.2,57.1,29.88,SE,126,0.0,2.0,75,0.00,,CLR,0.00,VWS V14.01,2013-06-09 06:51:00,
2013-06-09 01:52:00,65.2,57.1,29.88,SE,126,0.0,2.0,75,0.00,,CLR,0.00,VWS V14.01,2013-06-09 06:52:00,
2013-06-09 01:54:00,65.2,57.1,29.88,SE,126,0.0,2.0,75,0.00,,CLR,0.00,VWS V14.01,2013-06-09 06:54:00,
2013-06-09 01:56:00,65.2,57.1,29.88,SE,127,0.0,2.0,75,0.00,,CLR,0.00,VWS V14.01,2013-06-09 06:56:00,
2013-06-09 01:57:00,65.2,57.1,29.88,SE,127,0.0,2.0,75,0.00,,CLR,0.00,VWS V14.01,2013-06-09 06:57:00,
2013-06-09 01:59:00,65.2,57.1,29.88,SE,127,0.0,2.0,75,0.00,,CLR,0.00,VWS V14.01,2013-06-09 06:59:00,
2013-06-09 02:00:00,65.2,57.1,29.88,SE,127,0.0,2.0,75,0.00,,SCT120,0.00,VWS V14.01,2013-06-09 07:00:00,
2013-06-09 02:01:00,65.2,57.1,29.88,SE,127,0.0,0.0,75,0.00,,CLR,0.00,VWS V14.01,2013-06-09 07:01:00,
2013-06-09 02:02:00,65.2,57.1,29.88,SE,127,0.0,0.0,75,0.00,,CLR,0.00,VWS V14.01,2013-06-09 07:02:00,
2013-06-09 02:04:00,65.1,56.6,29.88,SE,127,0.0,0.0,74,0.00,,CLR,0.00,VWS V14.01,2013-06-09 07:04:00,
2013-06-09 02:06:00,65.1,56.6,29.88,SE,133,0.0,0.0,74,0.00,,CLR,0.00,VWS V14.01,2013-06-09 07:06:00,
2013-06-09 02:07:00,65.1,56.6,29.88,SE,133,0.0,0.0,74,0.00,,CLR,0.00,VWS V14.01,2013-06-09 07:07:00,
2013-06-09 02:09:00,65.1,56.6,29.88,SE,133,0.0,0.0,74,0.00,,CLR,0.00,VWS V14.01,2013-06-09 07:09:00,
2013-06-09 02:11:00,65.1,56.6,29.88,SE,133,0.0,0.0,74,0.00,,CLR,0.00,VWS V14.01,2013-06-09 07:11:00,
2013-06-09 02:12:00,65.1,56.6,29.88,South,186,0.0,4.0,74,0.00,,CLR,0.00,VWS V14.01,2013-06-09 07:12:00,
2013-06-09 02:15:00,65.2,56.7,29.88,South,186,0.0,4.0,74,0.00,,CLR,0.00,VWS V14.01,2013-06-09 07:15:00,
2013-06-09 02:16:00,65.2,56.7,29.88,South,190,0.0,4.0,74,0.00,,CLR,0.00,VWS V14.01,2013-06-09 07:16:00,
2013-06-09 02:17:00,65.2,56.7,29.88,South,190,0.0,4.0,74,0.00,,CLR,0.00,VWS V14.01,2013-06-09 07:17:00,
2013-06-09 02:18:00,65.2,56.7,29.88,South,190,0.0,4.0,74,0.00,,CLR,0.00,VWS V14.01,2013-06-09 07:18:00,
2013-06-09 02:20:00,65.2,56.3,29.88,South,190,0.0,4.0,73,0.00,,CLR,0.00,VWS V14.01,2013-06-09 07:20:00,
2013-06-09 02:22:00,65.2,56.3,29.88,South,190,0.0,4.0,73,0.00,,CLR,0.00,VWS V14.01,2013-06-09 07:22:00,
2013-06-09 02:23:00,65.2,56.3,29.88,South,190,0.0,4.0,73,0.00,,CLR,0.00,VWS V14.01,2013-06-09 07:23:00,
2013-06-09 02:25:00,65.2,56.3,29.88,South,190,0.0,4.0,73,0.00,,CLR,0.00,VWS V14.01,2013-06-09 07:25:00,
2013-06-09 02:27:00,65.2,56.3,29.88,South,182,0.0,4.0,73,0.00,,CLR,0.00,VWS V14.01,2013-06-09 07:27:00,
2013-06-09 02:28:00,65.2,56.3,29.88,South,182,0.0,4.0,73,0.00,,CLR,0.00,VWS V14.01,2013-06-09 07:28:00,
2013-06-09 02:30:00,65.2,56.3,29.88,South,182,0.0,4.0,73,0.00,,CLR,0.00,VWS V14.01,2013-06-09 07:30:00,
2013-06-09 02:32:00,65.2,56.3,29.88,South,182,0.0,0.0,73,0.00,,CLR,0.00,VWS V14.01,2013-06-09 07:32:00,
2013-06-09 02:33:00,65.2,56.7,29.88,South,182,0.0,0.0,74,0.00,,CLR,0.00,VWS V14.01,2013-06-09 07:33:00,
2013-06-09 02:35:00,65.2,56.7,29.88,South,182,0.0,0.0,74,0.00,,CLR,0.00,VWS V14.01,2013-06-09 07:35:00,
2013-06-09 02:37:00,65.1,56.6,29.88,South,186,0.0,2.0,74,0.00,,CLR,0.00,VWS V14.01,2013-06-09 07:37:00,
2013-06-09 02:38:00,65.1,56.6,29.88,South,186,0.0,2.0,74,0.00,,CLR,0.00,VWS V14.01,2013-06-09 07:38:00,
2013-06-09 02:39:00,65.1,56.6,29.88,SSW,211,3.0,3.0,74,0.00,,CLR,0.00,VWS V14.01,2013-06-09 07:39:00,
2013-06-09 02:40:00,65.1,56.6,29.88,SSW,200,0.0,4.0,74,0.00,,CLR,0.00,VWS V14.01,2013-06-09 07:40:00,
2013-06-09 02:42:00,65.1,56.6,29.88,SSW,199,0.0,4.0,74,0.00,,CLR,0.00,VWS V14.01,2013-06-09 07:42:00,
2013-06-09 02:43:00,65.2,56.7,29.88,SSW,202,0.0,4.0,74,0.00,,CLR,0.00,VWS V14.01,2013-06-09 07:43:00,
2013-06-09 02:44:00,65.2,56.3,29.88,SSW,206,0.0,4.0,73,0.00,,CLR,0.00,VWS V14.01,2013-06-09 07:44:00,
2013-06-09 02:45:00,65.2,56.3,29.88,SSW,207,0.0,4.0,73,0.00,,CLR,0.00,VWS V14.01,2013-06-09 07:45:00,
2013-06-09 02:48:00,65.4,56.5,29.88,SSW,200,0.0,4.0,73,0.00,,CLR,0.00,VWS V14.01,2013-06-09 07:48:00,
2013-06-09 02:49:00,65.4,56.5,29.88,SSW,200,0.0,4.0,73,0.00,,CLR,0.00,VWS V14.01,2013-06-09 07:49:00,
2013-06-09 02:50:00,65.4,56.5,29.88,SSW,198,0.0,4.0,73,0.00,,CLR,0.00,VWS V14.01,2013-06-09 07:50:00,
2013-06-09 02:53:00,65.5,56.6,29.88,SSW,198,0.0,4.0,73,0.00,,CLR,0.00,VWS V14.01,2013-06-09 07:53:00,
2013-06-09 02:54:00,65.5,56.6,29.88,SSW,198,0.0,4.0,73,0.00,,CLR,0.00,VWS V14.01,2013-06-09 07:54:00,
2013-06-09 02:55:00,65.5,56.6,29.88,SSW,209,0.0,4.0,73,0.00,,CLR,0.00,VWS V14.01,2013-06-09 07:55:00,
2013-06-09 02:58:00,65.5,56.6,29.88,SSW,209,0.0,4.0,73,0.00,,CLR,0.00,VWS V14.01,2013-06-09 07:58:00,
2013-06-09 02:59:00,65.5,56.2,29.88,SSW,209,0.0,4.0,72,0.00,,CLR,0.00,VWS V14.01,2013-06-09 07:59:00,
2013-06-09 03:00:00,65.5,56.2,29.87,SSW,209,0.0,4.0,72,0.00,,CLR,0.00,VWS V14.01,2013-06-09 08:00:00,
2013-06-09 03:01:00,65.5,56.2,29.87,SSW,209,0.0,0.0,72,0.00,,CLR,0.00,VWS V14.01,2013-06-09 08:01:00,
2013-06-09 03:03:00,65.5,56.2,29.87,ESE,104,0.0,0.0,72,0.00,,CLR,0.00,VWS V14.01,2013-06-09 08:03:00,
2013-06-09 03:04:00,65.5,56.2,29.87,ESE,104,0.0,0.0,72,0.00,,CLR,0.00,VWS V14.01,2013-06-09 08:04:00,
2013-06-09 03:05:00,65.7,56.4,29.87,ESE,104,0.0,0.0,72,0.00,,CLR,0.00,VWS V14.01,2013-06-09 08:05:00,
2013-06-09 03:06:00,65.7,56.4,29.87,ESE,104,0.0,0.0,72,0.00,,CLR,0.00,VWS V14.01,2013-06-09 08:06:00,
2013-06-09 03:08:00,65.7,56.4,29.87,ESE,104,0.0,1.0,72,0.00,,CLR,0.00,VWS V14.01,2013-06-09 08:08:00,
2013-06-09 03:09:00,65.7,56.4,29.87,ESE,104,0.0,1.0,72,0.00,,CLR,0.00,VWS V14.01,2013-06-09 08:09:00,
2013-06-09 03:10:00,65.7,56.4,29.87,ESE,104,0.0,1.0,72,0.00,,CLR,0.00,VWS V14.01,2013-06-09 08:10:00,
2013-06-09 03:11:00,65.7,56.4,29.87,South,186,0.0,1.0,72,0.00,,CLR,0.00,VWS V14.01,2013-06-09 08:11:00,
2013-06-09 03:13:00,65.7,56.4,29.87,South,184,0.0,1.0,72,0.00,,CLR,0.00,VWS V14.01,2013-06-09 08:13:00,
2013-06-09 03:15:00,65.7,56.4,29.87,South,187,0.0,1.0,72,0.00,,CLR,0.00,VWS V14.01,2013-06-09 08:15:00,
2013-06-09 03:17:00,65.7,56.0,29.87,South,186,0.0,1.0,71,0.00,,CLR,0.00,VWS V14.01,2013-06-09 08:17:00,
2013-06-09 03:18:00,65.7,56.0,29.87,South,186,0.0,1.0,71,0.00,,CLR,0.00,VWS V14.01,2013-06-09 08:18:00,
2013-06-09 03:19:00,65.7,56.0,29.87,South,186,0.0,1.0,71,0.00,,CLR,0.00,VWS V14.01,2013-06-09 08:19:00,
2013-06-09 03:20:00,65.9,56.2,29.87,South,186,0.0,1.0,71,0.00,,CLR,0.00,VWS V14.01,2013-06-09 08:20:00,
2013-06-09 03:22:00,65.9,56.2,29.87,South,186,0.0,1.0,71,0.00,,CLR,0.00,VWS V14.01,2013-06-09 08:22:00,
2013-06-09 03:24:00,65.9,56.2,29.87,SSW,192,0.0,1.0,71,0.00,,CLR,0.00,VWS V14.01,2013-06-09 08:24:00,
2013-06-09 03:25:00,65.9,56.2,29.87,SSW,192,0.0,1.0,71,0.00,,CLR,0.00,VWS V14.01,2013-06-09 08:25:00,
2013-06-09 03:27:00,65.9,56.2,29.87,SSW,192,0.0,1.0,71,0.00,,CLR,0.00,VWS V14.01,2013-06-09 08:27:00,
2013-06-09 03:29:00,65.9,56.2,29.87,SSW,192,0.0,1.0,71,0.00,,CLR,0.00,VWS V14.01,2013-06-09 08:29:00,
2013-06-09 03:30:00,65.9,56.2,29.88,South,190,0.0,1.0,71,0.00,,CLR,0.00,VWS V14.01,2013-06-09 08:30:00,
2013-06-09 03:32:00,65.9,56.2,29.88,South,190,0.0,0.0,71,0.00,,CLR,0.00,VWS V14.01,2013-06-09 08:32:00,
2013-06-09 03:34:00,65.9,56.2,29.88,South,188,0.0,0.0,71,0.00,,CLR,0.00,VWS V14.01,2013-06-09 08:34:00,
2013-06-09 03:35:00,65.9,56.2,29.88,South,187,0.0,1.0,71,0.00,,CLR,0.00,VWS V14.01,2013-06-09 08:35:00,
2013-06-09 03:37:00,65.9,56.2,29.88,South,186,0.0,1.0,71,0.00,,CLR,0.00,VWS V14.01,2013-06-09 08:37:00,
2013-06-09 03:39:00,65.9,56.2,29.88,South,186,0.0,1.0,71,0.00,,CLR,0.00,VWS V14.01,2013-06-09 08:39:00,
2013-06-09 03:40:00,65.9,56.2,29.88,South,186,0.0,1.0,71,0.00,,CLR,0.00,VWS V14.01,2013-06-09 08:40:00,
2013-06-09 03:41:00,65.9,56.2,29.88,South,188,1.0,1.0,71,0.00,,CLR,0.00,VWS V14.01,2013-06-09 08:41:00,
2013-06-09 03:42:00,65.9,56.2,29.88,South,188,0.0,2.0,71,0.00,,CLR,0.00,VWS V14.01,2013-06-09 08:42:00,
2013-06-09 03:44:00,65.9,56.2,29.88,South,188,0.0,2.0,71,0.00,,CLR,0.00,VWS V14.01,2013-06-09 08:44:00,
2013-06-09 03:45:00,65.9,56.2,29.88,South,188,0.0,2.0,71,0.00,,CLR,0.00,VWS V14.01,2013-06-09 08:45:00,
2013-06-09 03:47:00,65.9,56.2,29.88,South,186,0.0,2.0,71,0.00,,CLR,0.00,VWS V14.01,2013-06-09 08:47:00,
2013-06-09 03:49:00,65.9,56.6,29.88,South,186,0.0,2.0,72,0.00,,CLR,0.00,VWS V14.01,2013-06-09 08:49:00,
2013-06-09 03:50:00,65.9,56.6,29.88,South,188,0.0,2.0,72,0.00,,CLR,0.00,VWS V14.01,2013-06-09 08:50:00,
2013-06-09 03:51:00,65.7,56.4,29.88,South,188,0.0,2.0,72,0.00,,CLR,0.00,VWS V14.01,2013-06-09 08:51:00,
2013-06-09 03:52:00,65.7,56.4,29.88,South,188,0.0,2.0,72,0.00,,CLR,0.00,VWS V14.01,2013-06-09 08:52:00,
2013-06-09 03:53:00,65.7,56.4,29.88,South,188,0.0,2.0,72,0.00,,CLR,0.00,VWS V14.01,2013-06-09 08:53:00,
2013-06-09 03:54:00,65.7,56.4,29.88,South,188,0.0,2.0,72,0.00,,CLR,0.00,VWS V14.01,2013-06-09 08:54:00,
2013-06-09 03:55:00,65.7,56.4,29.88,SSW,193,0.0,2.0,72,0.00,,CLR,0.00,VWS V14.01,2013-06-09 08:55:00,
2013-06-09 03:56:00,65.7,56.4,29.88,SSW,193,1.0,2.0,72,0.00,,CLR,0.00,VWS V14.01,2013-06-09 08:56:00,
2013-06-09 03:57:00,65.7,56.4,29.88,SSW,193,0.0,2.0,72,0.00,,CLR,0.00,VWS V14.01,2013-06-09 08:57:00,
2013-06-09 03:58:00,65.5,56.2,29.88,SSW,193,0.0,2.0,72,0.00,,CLR,0.00,VWS V14.01,2013-06-09 08:58:00,
2013-06-09 03:59:00,65.5,56.2,29.88,South,188,0.0,2.0,72,0.00,,CLR,0.00,VWS V14.01,2013-06-09 08:59:00,
2013-06-09 04:00:00,65.5,56.2,29.88,SSE,159,0.0,2.0,72,0.00,,SCT120,0.00,VWS V14.01,2013-06-09 09:00:00,
2013-06-09 04:01:00,65.5,56.2,29.88,SSE,159,0.0,0.0,72,0.00,,CLR,0.00,VWS V14.01,2013-06-09 09:01:00,
2013-06-09 04:02:00,65.5,56.6,29.88,SSE,161,0.0,0.0,73,0.00,,SCT070,0.00,VWS V14.01,2013-06-09 09:02:00,
2013-06-09 04:03:00,65.5,56.6,29.88,SSE,161,0.0,0.0,73,0.00,,SCT070,0.00,VWS V14.01,2013-06-09 09:03:00,
2013-06-09 04:04:00,65.4,56.5,29.88,SSE,161,0.0,1.0,73,0.00,,SCT070,0.00,VWS V14.01,2013-06-09 09:04:00,
2013-06-09 04:06:00,65.4,56.5,29.88,SSE,161,0.0,1.0,73,0.00,,SCT070,0.00,VWS V14.01,2013-06-09 09:06:00,
2013-06-09 04:07:00,65.4,56.5,29.88,SSE,161,0.0,1.0,73,0.00,,SCT070,0.00,VWS V14.01,2013-06-09 09:07:00,
2013-06-09 04:08:00,65.4,56.5,29.88,SSE,161,0.0,1.0,73,0.00,,SCT070,0.00,VWS V14.01,2013-06-09 09:08:00,
2013-06-09 04:09:00,65.2,56.3,29.88,South,187,0.0,2.0,73,0.00,,SCT070,0.00,VWS V14.01,2013-06-09 09:09:00,
2013-06-09 04:11:00,65.2,56.3,29.88,South,185,0.0,2.0,73,0.00,,SCT070,0.00,VWS V14.01,2013-06-09 09:11:00,
2013-06-09 04:12:00,65.2,56.3,29.88,South,186,0.0,2.0,73,0.00,,SCT070,0.00,VWS V14.01,2013-06-09 09:12:00,
2013-06-09 04:13:00,65.2,56.3,29.88,South,188,0.0,2.0,73,0.00,,SCT070,0.00,VWS V14.01,2013-06-09 09:13:00,
2013-06-09 04:15:00,65.2,56.3,29.87,SE,139,0.0,3.0,73,0.00,,SCT070,0.00,VWS V14.01,2013-06-09 09:15:00,
2013-06-09 04:16:00,65.2,56.3,29.87,SE,140,0.0,3.0,73,0.00,,SCT070,0.00,VWS V14.01,2013-06-09 09:16:00,
2013-06-09 04:17:00,65.2,56.3,29.87,SE,146,0.0,3.0,73,0.00,,SCT070,0.00,VWS V14.01,2013-06-09 09:17:00,
2013-06-09 04:18:00,65.2,56.3,29.87,SSE,153,0.0,3.0,73,0.00,,SCT070,0.00,VWS V14.01,2013-06-09 09:18:00,
2013-06-09 04:20:00,65.2,56.3,29.87,SSW,207,0.0,5.0,73,0.00,,SCT070,0.00,VWS V14.01,2013-06-09 09:20:00,
2013-06-09 04:22:00,65.2,56.3,29.87,South,191,0.0,5.0,73,0.00,,SCT070,0.00,VWS V14.01,2013-06-09 09:22:00,
2013-06-09 04:23:00,65.4,56.2,29.87,SE,134,0.0,5.0,72,0.00,,SCT070,0.00,VWS V14.01,2013-06-09 09:23:00,
2013-06-09 04:25:00,65.4,56.2,29.87,South,184,0.0,5.0,72,0.00,,SCT070,0.00,VWS V14.01,2013-06-09 09:25:00,
2013-06-09 04:27:00,65.4,56.2,29.87,SSW,198,0.0,5.0,72,0.00,,SCT070,0.00,VWS V14.01,2013-06-09 09:27:00,
2013-06-09 04:28:00,65.5,56.2,29.87,SSW,196,0.0,5.0,72,0.00,,SCT070,0.00,VWS V14.01,2013-06-09 09:28:00,
2013-06-09 04:30:00,65.5,56.2,29.87,SE,144,0.0,5.0,72,0.00,,SCT070,0.00,VWS V14.01,2013-06-09 09:30:00,
2013-06-09 04:32:00,65.5,56.2,29.87,SE,145,0.0,0.0,72,0.00,,SCT070,0.00,VWS V14.01,2013-06-09 09:32:00,
2013-06-09 04:33:00,65.5,56.2,29.87,SE,145,0.0,0.0,72,0.00,,SCT070,0.00,VWS V14.01,2013-06-09 09:33:00,
2013-06-09 04:35:00,65.5,56.2,29.87,SSW,201,0.0,1.0,72,0.00,,SCT070,0.00,VWS V14.01,2013-06-09 09:35:00,
2013-06-09 04:37:00,65.5,56.2,29.87,SSW,201,0.0,1.0,72,0.00,,SCT070,0.00,VWS V14.01,2013-06-09 09:37:00,
2013-06-09 04:39:00,65.5,56.2,29.87,SSE,148,0.0,1.0,72,0.00,,SCT070,0.00,VWS V14.01,2013-06-09 09:39:00,
2013-06-09 04:40:00,65.5,56.2,29.87,SSW,209,2.0,2.0,72,0.00,,SCT070,0.00,VWS V14.01,2013-06-09 09:40:00,
2013-06-09 04:42:00,65.5,55.9,29.87,SSW,194,0.0,4.0,71,0.00,,SCT070,0.00,VWS V14.01,2013-06-09 09:42:00,
2013-06-09 04:43:00,65.5,55.9,29.87,SSW,194,0.0,4.0,71,0.00,,SCT070,0.00,VWS V14.01,2013-06-09 09:43:00,
2013-06-09 04:44:00,65.7,56.4,29.87,SSW,194,0.0,4.0,72,0.00,,SCT070,0.00,VWS V14.01,2013-06-09 09:44:00,
2013-06-09 04:45:00,65.5,55.9,29.86,South,170,0.0,4.0,71,0.00,,SCT070,0.00,VWS V14.01,2013-06-09 09:45:00,
2013-06-09 04:48:00,65.7,56.0,29.86,South,180,0.0,4.0,71,0.00,,SCT070,0.00,VWS V14.01,2013-06-09 09:48:00,
2013-06-09 04:49:00,65.7,56.0,29.86,South,180,0.0,4.0,71,0.00,,SCT070,0.00,VWS V14.01,2013-06-09 09:49:00,
2013-06-09 04:51:00,65.5,55.9,29.86,South,180,0.0,4.0,71,0.00,,SCT070,0.00,VWS V14.01,2013-06-09 09:51:00,
2013-06-09 04:53:00,65.5,55.9,29.86,South,188,2.0,4.0,71,0.00,,SCT070,0.00,VWS V14.01,2013-06-09 09:53:00,
2013-06-09 04:54:00,65.5,55.9,29.86,South,188,0.0,4.0,71,0.00,,SCT070,0.00,VWS V14.01,2013-06-09 09:54:00,
2013-06-09 04:56:00,65.5,55.9,29.86,South,184,0.0,4.0,71,0.00,,SCT070,0.00,VWS V14.01,2013-06-09 09:56:00,
2013-06-09 04:58:00,65.5,55.9,29.86,SSW,198,0.0,4.0,71,0.00,,SCT070,0.00,VWS V14.01,2013-06-09 09:58:00,
2013-06-09 04:59:00,65.5,55.9,29.86,SSW,196,0.0,4.0,71,0.00,,SCT070,0.00,VWS V14.01,2013-06-09 09:59:00,
2013-06-09 05:00:00,65.5,55.9,29.87,SSW,196,0.0,4.0,71,0.00,,SCT120,0.00,VWS V14.01,2013-06-09 10:00:00,
2013-06-09 05:01:00,65.5,56.2,29.87,SW,224,1.0,1.0,72,0.00,,SCT070,0.00,VWS V14.01,2013-06-09 10:01:00,
2013-06-09 05:03:00,65.5,55.9,29.87,SW,221,0.0,1.0,71,0.00,,SCT070,0.00,VWS V14.01,2013-06-09 10:03:00,
2013-06-09 05:04:00,65.5,55.9,29.87,SW,221,0.0,1.0,71,0.00,,SCT070,0.00,VWS V14.01,2013-06-09 10:04:00,
2013-06-09 05:06:00,65.5,55.9,29.87,SSW,210,0.0,1.0,71,0.00,,SCT070,0.00,VWS V14.01,2013-06-09 10:06:00,
2013-06-09 05:08:00,65.5,55.9,29.87,SSW,208,0.0,1.0,71,0.00,,SCT070,0.00,VWS V14.01,2013-06-09 10:08:00,
2013-06-09 05:09:00,65.5,55.9,29.87,SSW,208,0.0,1.0,71,0.00,,SCT070,0.00,VWS V14.01,2013-06-09 10:09:00,
2013-06-09 05:11:00,65.5,55.9,29.87,South,175,0.0,1.0,71,0.00,,SCT070,0.00,VWS V14.01,2013-06-09 10:11:00,
2013-06-09 05:13:00,65.5,55.9,29.87,SSW,197,0.0,1.0,71,0.00,,SCT070,0.00,VWS V14.01,2013-06-09 10:13:00,
2013-06-09 05:14:00,65.5,55.9,29.87,SSW,197,0.0,1.0,71,0.00,,SCT070,0.00,VWS V14.01,2013-06-09 10:14:00,
2013-06-09 05:16:00,65.5,55.9,29.87,SSW,200,0.0,1.0,71,0.00,,SCT070,0.00,VWS V14.01,2013-06-09 10:16:00,
2013-06-09 05:18:00,65.5,55.9,29.87,SSW,194,0.0,1.0,71,0.00,,SCT070,0.00,VWS V14.01,2013-06-09 10:18:00,
2013-06-09 05:19:00,65.5,55.9,29.87,SSW,194,0.0,1.0,71,0.00,,SCT070,0.00,VWS V14.01,2013-06-09 10:19:00,
2013-06-09 05:20:00,65.5,55.9,29.87,SSW,194,0.0,1.0,71,0.00,,SCT070,0.00,VWS V14.01,2013-06-09 10:20:00,
2013-06-09 05:21:00,65.5,56.2,29.87,SSW,195,0.0,1.0,72,0.00,,SCT070,0.00,VWS V14.01,2013-06-09 10:21:00,
2013-06-09 05:23:00,65.5,55.9,29.87,South,188,0.0,1.0,71,0.00,,SCT070,0.00,VWS V14.01,2013-06-09 10:23:00,
2013-06-09 05:24:00,65.5,55.9,29.87,South,188,0.0,1.0,71,0.00,,SCT070,0.00,VWS V14.01,2013-06-09 10:24:00,
2013-06-09 05:25:00,65.5,55.9,29.87,South,190,0.0,1.0,71,0.00,,SCT070,0.00,VWS V14.01,2013-06-09 10:25:00,
2013-06-09 05:26:00,65.7,56.0,29.87,SSW,206,0.0,1.0,71,0.00,,SCT070,0.00,VWS V14.01,2013-06-09 10:26:00,
2013-06-09 05:28:00,65.7,56.0,29.87,SE,138,0.0,1.0,71,0.00,,SCT070,0.00,VWS V14.01,2013-06-09 10:28:00,
2013-06-09 05:29:00,65.7,56.0,29.87,SE,139,0.0,1.0,71,0.00,,SCT070,0.00,VWS V14.01,2013-06-09 10:29:00,
2013-06-09 05:30:00,65.7,56.0,29.86,South,187,0.0,1.0,71,0.00,,SCT070,0.00,VWS V14.01,2013-06-09 10:30:00,
2013-06-09 05:32:00,65.7,56.0,29.86,South,187,0.0,0.0,71,0.00,,SCT070,0.00,VWS V14.01,2013-06-09 10:32:00,
2013-06-09 05:34:00,65.7,56.0,29.86,SSW,193,0.0,0.0,71,0.00,,SCT070,0.00,VWS V14.01,2013-06-09 10:34:00,
2013-06-09 05:35:00,65.7,56.0,29.86,South,186,0.0,1.0,71,0.00,,SCT070,0.00,VWS V14.01,2013-06-09 10:35:00,
2013-06-09 05:37:00,65.7,55.7,29.86,South,181,0.0,1.0,70,0.00,,SCT070,0.00,VWS V14.01,2013-06-09 10:37:00,
2013-06-09 05:39:00,65.9,55.8,29.86,South,182,0.0,1.0,70,0.00,,SCT070,0.00,VWS V14.01,2013-06-09 10:39:00,
2013-06-09 05:40:00,65.9,55.8,29.86,South,183,0.0,1.0,70,0.00,,SCT070,0.00,VWS V14.01,2013-06-09 10:40:00,
2013-06-09 05:42:00,65.9,55.8,29.86,SSW,196,0.0,6.0,70,0.00,,SCT070,0.00,VWS V14.01,2013-06-09 10:42:00,
2013-06-09 05:44:00,65.9,55.8,29.86,SSW,197,0.0,6.0,70,0.00,,SCT070,0.00,VWS V14.01,2013-06-09 10:44:00,
2013-06-09 05:45:00,65.9,55.8,29.86,SSW,194,0.0,6.0,70,0.00,,SCT070,0.00,VWS V14.01,2013-06-09 10:45:00,
2013-06-09 05:47:00,65.9,55.8,29.86,SSW,201,0.0,6.0,70,0.00,,SCT070,0.00,VWS V14.01,2013-06-09 10:47:00,
2013-06-09 05:49:00,65.9,55.8,29.86,South,169,0.0,6.0,70,0.00,,SCT070,0.00,VWS V14.01,2013-06-09 10:49:00,
2013-06-09 05:50:00,65.9,55.8,29.86,SSE,167,0.0,6.0,70,0.00,,SCT070,0.00,VWS V14.01,2013-06-09 10:50:00,
2013-06-09 05:51:00,66.0,56.0,29.86,SSE,167,0.0,6.0,70,0.00,,SCT070,0.00,VWS V14.01,2013-06-09 10:51:00,
2013-06-09 05:52:00,66.0,56.0,29.86,SSE,168,0.0,6.0,70,0.00,,SCT070,0.00,VWS V14.01,2013-06-09 10:52:00,
2013-06-09 05:54:00,65.9,55.8,29.86,SSE,155,0.0,6.0,70,0.00,,SCT070,0.00,VWS V14.01,2013-06-09 10:54:00,
2013-06-09 05:55:00,65.9,55.8,29.86,South,175,0.0,6.0,70,0.00,,SCT070,0.00,VWS V14.01,2013-06-09 10:55:00,
2013-06-09 05:56:00,65.9,55.8,29.86,South,175,0.0,6.0,70,0.00,,SCT070,0.00,VWS V14.01,2013-06-09 10:56:00,
2013-06-09 05:57:00,65.9,55.8,29.86,South,177,0.0,6.0,70,0.00,,SCT070,0.00,VWS V14.01,2013-06-09 10:57:00,
2013-06-09 05:59:00,65.9,55.8,29.86,South,177,0.0,6.0,70,0.00,,SCT070,0.00,VWS V14.01,2013-06-09 10:59:00,
2013-06-09 06:00:00,65.9,55.8,29.86,South,185,0.0,6.0,70,0.00,,SCT070,0.00,VWS V14.01,2013-06-09 11:00:00,
2013-06-09 06:01:00,65.9,55.8,29.86,South,185,0.0,0.0,70,0.00,,BKN070,0.00,VWS V14.01,2013-06-09 11:01:00,
2013-06-09 06:02:00,65.7,55.7,29.86,South,184,0.0,0.0,70,0.00,,BKN070,0.00,VWS V14.01,2013-06-09 11:02:00,
2013-06-09 06:04:00,65.7,55.7,29.86,South,180,0.0,1.0,70,0.00,,BKN070,0.00,VWS V14.01,2013-06-09 11:04:00,
2013-06-09 06:05:00,65.7,55.7,29.86,South,180,0.0,1.0,70,0.00,,BKN070,0.00,VWS V14.01,2013-06-09 11:05:00,
2013-06-09 06:06:00,65.7,56.0,29.86,South,180,0.0,1.0,71,0.00,,BKN070,0.00,VWS V14.01,2013-06-09 11:06:00,
2013-06-09 06:07:00,65.7,56.0,29.86,South,180,0.0,1.0,71,0.00,,BKN070,0.00,VWS V14.01,2013-06-09 11:07:00,
2013-06-09 06:09:00,65.7,56.0,29.86,South,186,0.0,1.0,71,0.00,,BKN070,0.00,VWS V14.01,2013-06-09 11:09:00,
2013-06-09 06:12:00,65.7,56.0,29.86,South,180,0.0,1.0,71,0.00,,BKN070,0.00,VWS V14.01,2013-06-09 11:12:00,
2013-06-09 06:13:00,65.7,56.0,29.86,South,180,0.0,1.0,71,0.00,,BKN070,0.00,VWS V14.01,2013-06-09 11:13:00,
2013-06-09 06:14:00,65.7,56.0,29.86,South,180,0.0,1.0,71,0.00,,BKN070,0.00,VWS V14.01,2013-06-09 11:14:00,
2013-06-09 06:17:00,65.5,55.9,29.86,South,180,0.0,1.0,71,0.00,,BKN070,0.00,VWS V14.01,2013-06-09 11:17:00,
2013-06-09 06:18:00,65.5,55.9,29.86,South,180,0.0,1.0,71,0.00,,BKN070,0.00,VWS V14.01,2013-06-09 11:18:00,
2013-06-09 06:19:00,65.5,56.2,29.86,South,180,0.0,1.0,72,0.00,,BKN070,0.00,VWS V14.01,2013-06-09 11:19:00,
2013-06-09 06:22:00,65.5,56.2,29.86,South,174,0.0,1.0,72,0.00,,BKN070,0.00,VWS V14.01,2013-06-09 11:22:00,
2013-06-09 06:23:00,65.5,56.2,29.86,South,175,0.0,1.0,72,0.00,,BKN070,0.00,VWS V14.01,2013-06-09 11:23:00,
2013-06-09 06:25:00,65.5,56.2,29.86,South,173,0.0,1.0,72,0.00,,BKN070,0.00,VWS V14.01,2013-06-09 11:25:00,
2013-06-09 06:27:00,65.5,56.2,29.86,South,179,0.0,1.0,72,0.00,,BKN070,0.00,VWS V14.01,2013-06-09 11:27:00,
2013-06-09 06:28:00,65.5,56.2,29.86,South,179,0.0,1.0,72,0.00,,BKN070,0.00,VWS V14.01,2013-06-09 11:28:00,
2013-06-09 06:30:00,65.5,56.2,29.86,South,179,0.0,1.0,72,0.00,,BKN070,0.00,VWS V14.01,2013-06-09 11:30:00,
2013-06-09 06:32:00,65.7,56.4,29.86,SSE,163,0.0,0.0,72,0.00,,BKN070,0.00,VWS V14.01,2013-06-09 11:32:00,
2013-06-09 06:33:00,65.7,56.4,29.86,SSE,159,1.0,1.0,72,0.00,,BKN070,0.00,VWS V14.01,2013-06-09 11:33:00,
2013-06-09 06:35:00,65.9,56.2,29.86,South,170,0.0,1.0,71,0.00,,BKN070,0.00,VWS V14.01,2013-06-09 11:35:00,
2013-06-09 06:37:00,66.0,56.3,29.86,South,171,0.0,1.0,71,0.00,,BKN070,0.00,VWS V14.01,2013-06-09 11:37:00,
2013-06-09 06:38:00,66.0,56.3,29.86,South,171,0.0,1.0,71,0.00,,BKN070,0.00,VWS V14.01,2013-06-09 11:38:00,
2013-06-09 06:39:00,66.0,56.3,29.86,South,171,0.0,1.0,71,0.00,,BKN070,0.00,VWS V14.01,2013-06-09 11:39:00,
2013-06-09 06:40:00,66.2,56.5,29.86,South,171,0.0,1.0,71,0.00,,BKN070,0.00,VWS V14.01,2013-06-09 11:40:00,
2013-06-09 06:42:00,66.2,56.5,29.86,South,169,0.0,1.0,71,0.00,,BKN070,0.00,VWS V14.01,2013-06-09 11:42:00,
2013-06-09 06:43:00,66.2,56.5,29.86,South,169,0.0,1.0,71,0.00,,BKN070,0.00,VWS V14.01,2013-06-09 11:43:00,
2013-06-09 06:44:00,66.3,56.6,29.86,SSW,213,0.0,1.0,71,0.00,,BKN070,0.00,VWS V14.01,2013-06-09 11:44:00,
2013-06-09 06:45:00,66.3,56.6,29.86,SSE,168,0.0,3.0,71,0.00,,BKN070,0.00,VWS V14.01,2013-06-09 11:45:00,
2013-06-09 06:48:00,66.3,56.6,29.86,South,173,0.0,3.0,71,0.00,,BKN070,0.00,VWS V14.01,2013-06-09 11:48:00,
2013-06-09 06:50:00,66.5,56.8,29.86,ESE,122,0.0,3.0,71,0.00,,BKN070,0.00,VWS V14.01,2013-06-09 11:50:00,
2013-06-09 06:53:00,66.7,57.0,29.86,South,188,0.0,3.0,71,0.00,,BKN070,0.00,VWS V14.01,2013-06-09 11:53:00,
2013-06-09 06:55:00,66.7,57.0,29.86,South,188,0.0,3.0,71,0.00,,BKN070,0.00,VWS V14.01,2013-06-09 11:55:00,
2013-06-09 06:58:00,66.7,57.0,29.86,SSE,159,0.0,3.0,71,0.00,,BKN070,0.00,VWS V14.01,2013-06-09 11:58:00,
2013-06-09 07:00:00,66.7,57.0,29.86,SSE,161,0.0,3.0,71,0.00,,BKN070,0.00,VWS V14.01,2013-06-09 12:00:00,
2013-06-09 07:01:00,66.7,57.0,29.86,SSW,193,0.0,0.0,71,0.00,,BKN070,0.00,VWS V14.01,2013-06-09 12:01:00,
2013-06-09 07:03:00,66.8,57.1,29.86,South,176,0.0,0.0,71,0.00,,BKN070,0.00,VWS V14.01,2013-06-09 12:03:00,
2013-06-09 07:05:00,66.8,57.1,29.86,South,174,0.0,1.0,71,0.00,,BKN070,0.00,VWS V14.01,2013-06-09 12:05:00,
2013-06-09 07:06:00,66.8,57.1,29.86,SSE,161,0.0,5.0,71,0.00,,BKN070,0.00,VWS V14.01,2013-06-09 12:06:00,
2013-06-09 07:08:00,66.8,57.1,29.86,SSE,165,0.0,5.0,71,0.00,,BKN070,0.00,VWS V14.01,2013-06-09 12:08:00,
2013-06-09 07:10:00,67.0,57.3,29.86,SSW,205,0.0,5.0,71,0.00,,BKN070,0.00,VWS V14.01,2013-06-09 12:10:00,
2013-06-09 07:12:00,67.0,57.3,29.86,SSW,196,1.0,5.0,71,0.00,,BKN070,0.00,VWS V14.01,2013-06-09 12:12:00,
2013-06-09 07:13:00,67.0,57.3,29.86,SSW,196,0.0,5.0,71,0.00,,BKN070,0.00,VWS V14.01,2013-06-09 12:13:00,
2013-06-09 07:14:00,67.0,57.3,29.86,SSW,196,0.0,5.0,71,0.00,,BKN070,0.00,VWS V14.01,2013-06-09 12:14:00,
2013-06-09 07:15:00,67.2,57.5,29.87,South,187,2.0,5.0,71,0.00,,BKN070,0.00,VWS V14.01,2013-06-09 12:15:00,
2013-06-09 07:17:00,67.2,57.5,29.87,South,188,0.0,5.0,71,0.00,,BKN070,0.00,VWS V14.01,2013-06-09 12:17:00,
2013-06-09 07:18:00,67.2,57.5,29.87,SSE,158,1.0,5.0,71,0.00,,BKN070,0.00,VWS V14.01,2013-06-09 12:18:00,
2013-06-09 07:19:00,67.2,57.5,29.87,SSE,159,2.0,5.0,71,0.00,,BKN070,0.00,VWS V14.01,2013-06-09 12:19:00,
2013-06-09 07:20:00,67.3,57.6,29.87,SSW,203,0.0,5.0,71,0.00,,BKN070,0.00,VWS V14.01,2013-06-09 12:20:00,
2013-06-09 07:22:00,67.5,57.8,29.87,South,182,0.0,5.0,71,0.00,,BKN070,0.00,VWS V14.01,2013-06-09 12:22:00,
2013-06-09 07:23:00,67.5,57.4,29.87,South,169,0.0,5.0,70,0.00,,BKN070,0.00,VWS V14.01,2013-06-09 12:23:00,
2013-06-09 07:24:00,67.5,57.4,29.87,South,169,0.0,5.0,70,0.00,,BKN070,0.00,VWS V14.01,2013-06-09 12:24:00,
2013-06-09 07:25:00,67.5,57.4,29.87,SSW,197,0.0,5.0,70,0.00,,BKN070,0.00,VWS V14.01,2013-06-09 12:25:00,
2013-06-09 07:27:00,67.7,58.0,29.87,South,176,0.0,5.0,71,0.00,,BKN070,0.00,VWS V14.01,2013-06-09 12:27:00,
2013-06-09 07:28:00,67.7,57.6,29.87,SSE,163,0.0,5.0,70,0.00,,BKN070,0.00,VWS V14.01,2013-06-09 12:28:00,
2013-06-09 07:29:00,67.7,57.6,29.87,SSE,164,0.0,5.0,70,0.00,,BKN070,0.00,VWS V14.01,2013-06-09 12:29:00,
2013-06-09 07:30:00,67.8,58.1,29.87,SSE,164,0.0,5.0,71,0.00,,SCT120,0.00,VWS V14.01,2013-06-09 12:30:00,
2013-06-09 07:31:00,67.8,58.1,29.87,SSE,164,0.0,0.0,71,0.00,,CLR,0.00,VWS V14.01,2013-06-09 12:31:00,
2013-06-09 07:32:00,67.8,57.7,29.87,South,175,0.0,4.0,70,0.00,,CLR,0.00,VWS V14.01,2013-06-09 12:32:00,
2013-06-09 07:33:00,67.8,57.7,29.87,SSE,157,0.0,4.0,70,0.00,,CLR,0.00,VWS V14.01,2013-06-09 12:33:00,
2013-06-09 07:34:00,68.0,57.9,29.87,SSE,154,1.0,4.0,70,0.00,,CLR,0.00,VWS V14.01,2013-06-09 12:34:00,
2013-06-09 07:36:00,68.0,57.9,29.87,SSE,161,0.0,4.0,70,0.00,,CLR,0.00,VWS V14.01,2013-06-09 12:36:00,
2013-06-09 07:37:00,68.2,58.0,29.87,South,175,3.0,4.0,70,0.00,,CLR,0.00,VWS V14.01,2013-06-09 12:37:00,
2013-06-09 07:38:00,68.2,58.0,29.87,SSE,166,0.0,4.0,70,0.00,,CLR,0.00,VWS V14.01,2013-06-09 12:38:00,
2013-06-09 07:39:00,68.2,58.0,29.87,SSE,165,0.0,4.0,70,0.00,,CLR,0.00,VWS V14.01,2013-06-09 12:39:00,
2013-06-09 07:40:00,68.2,58.0,29.87,SSW,199,0.0,4.0,70,0.00,,CLR,0.00,VWS V14.01,2013-06-09 12:40:00,
2013-06-09 07:41:00,68.2,58.0,29.87,SSW,194,1.0,4.0,70,0.00,,CLR,0.00,VWS V14.01,2013-06-09 12:41:00,
2013-06-09 07:42:00,68.2,57.7,29.87,SSW,194,0.0,6.0,69,0.00,,CLR,0.00,VWS V14.01,2013-06-09 12:42:00,
2013-06-09 07:44:00,68.3,57.8,29.87,SW,219,6.0,6.0,69,0.00,,CLR,0.00,VWS V14.01,2013-06-09 12:44:00,
2013-06-09 07:45:00,68.3,57.8,29.87,South,180,0.0,6.0,69,0.00,,CLR,0.00,VWS V14.01,2013-06-09 12:45:00,
2013-06-09 07:46:00,68.3,57.8,29.87,ESE,105,0.0,6.0,69,0.00,,CLR,0.00,VWS V14.01,2013-06-09 12:46:00,
2013-06-09 07:48:00,68.5,57.9,29.87,ESE,119,0.0,6.0,69,0.00,,CLR,0.00,VWS V14.01,2013-06-09 12:48:00,
2013-06-09 07:49:00,68.5,57.9,29.87,SSE,166,0.0,6.0,69,0.00,,CLR,0.00,VWS V14.01,2013-06-09 12:49:00,
2013-06-09 07:51:00,68.7,58.5,29.87,SSE,166,0.0,6.0,70,0.00,,CLR,0.00,VWS V14.01,2013-06-09 12:51:00,
2013-06-09 07:52:00,68.7,58.1,29.87,SSE,166,0.0,6.0,69,0.00,,CLR,0.00,VWS V14.01,2013-06-09 12:52:00,
2013-06-09 07:53:00,68.7,58.1,29.87,SSW,198,0.0,6.0,69,0.00,,CLR,0.00,VWS V14.01,2013-06-09 12:53:00,
2013-06-09 07:54:00,68.8,58.2,29.87,SSE,160,0.0,6.0,69,0.00,,CLR,0.00,VWS V14.01,2013-06-09 12:54:00,
2013-06-09 07:55:00,68.8,58.2,29.87,SSE,160,0.0,6.0,69,0.00,,CLR,0.00,VWS V14.01,2013-06-09 12:55:00,
2013-06-09 07:56:00,68.8,58.2,29.87,South,179,0.0,6.0,69,0.00,,CLR,0.00,VWS V14.01,2013-06-09 12:56:00,
2013-06-09 07:57:00,68.8,58.2,29.87,South,178,0.0,6.0,69,0.00,,CLR,0.00,VWS V14.01,2013-06-09 12:57:00,
2013-06-09 07:58:00,69.0,58.4,29.87,South,190,0.0,6.0,69,0.00,,CLR,0.00,VWS V14.01,2013-06-09 12:58:00,
2013-06-09 08:00:00,69.0,58.4,29.86,SSW,194,0.0,6.0,69,0.00,,CLR,0.00,VWS V14.01,2013-06-09 13:00:00,
2013-06-09 08:01:00,69.2,58.6,29.86,SSW,194,0.0,0.0,69,0.00,,CLR,0.00,VWS V14.01,2013-06-09 13:01:00,
2013-06-09 08:02:00,69.2,58.6,29.86,South,184,2.0,2.0,69,0.00,,CLR,0.00,VWS V14.01,2013-06-09 13:02:00,
2013-06-09 08:03:00,69.2,58.2,29.86,South,184,0.0,7.0,68,0.00,,CLR,0.00,VWS V14.01,2013-06-09 13:03:00,
2013-06-09 08:05:00,69.3,58.3,29.86,South,186,2.0,7.0,68,0.00,,CLR,0.00,VWS V14.01,2013-06-09 13:05:00,
2013-06-09 08:06:00,69.5,58.5,29.86,SSW,196,0.0,7.0,68,0.00,,CLR,0.00,VWS V14.01,2013-06-09 13:06:00,
2013-06-09 08:07:00,69.5,58.1,29.86,South,184,4.0,7.0,67,0.00,,CLR,0.00,VWS V14.01,2013-06-09 13:07:00,
2013-06-09 08:08:00,69.7,58.3,29.86,South,184,0.0,7.0,67,0.00,,CLR,0.00,VWS V14.01,2013-06-09 13:08:00,
2013-06-09 08:10:00,69.8,58.4,29.86,SSE,153,0.0,7.0,67,0.00,,CLR,0.00,VWS V14.01,2013-06-09 13:10:00,
2013-06-09 08:11:00,69.8,58.4,29.86,South,187,0.0,7.0,67,0.00,,CLR,0.00,VWS V14.01,2013-06-09 13:11:00,
2013-06-09 08:12:00,70.0,58.5,29.86,South,187,0.0,7.0,67,0.00,,CLR,0.00,VWS V14.01,2013-06-09 13:12:00,
2013-06-09 08:13:00,70.0,58.5,29.86,SSW,213,7.0,7.0,67,0.00,,CLR,0.00,VWS V14.01,2013-06-09 13:13:00,
2013-06-09 08:15:00,70.0,58.1,29.87,SSW,194,0.0,8.0,66,0.00,,CLR,0.00,VWS V14.01,2013-06-09 13:15:00,
2013-06-09 08:16:00,70.2,58.7,29.87,South,185,0.0,8.0,67,0.00,,CLR,0.00,VWS V14.01,2013-06-09 13:16:00,
2013-06-09 08:17:00,70.2,58.7,29.87,South,188,0.0,8.0,67,0.00,,CLR,0.00,VWS V14.01,2013-06-09 13:17:00,
2013-06-09 08:18:00,70.2,58.7,29.87,South,179,0.0,8.0,67,0.00,,CLR,0.00,VWS V14.01,2013-06-09 13:18:00,
2013-06-09 08:20:00,70.3,58.8,29.87,SW,233,6.0,9.0,67,0.00,,CLR,0.00,VWS V14.01,2013-06-09 13:20:00,
2013-06-09 08:22:00,70.3,58.0,29.87,South,183,0.0,9.0,65,0.00,,CLR,0.00,VWS V14.01,2013-06-09 13:22:00,
2013-06-09 08:23:00,70.3,58.4,29.87,SSW,200,5.0,9.0,66,0.00,,CLR,0.00,VWS V14.01,2013-06-09 13:23:00,
2013-06-09 08:25:00,70.5,58.6,29.87,SW,216,1.0,9.0,66,0.00,,CLR,0.00,VWS V14.01,2013-06-09 13:25:00,
2013-06-09 08:26:00,70.5,59.0,29.87,SSW,207,6.0,9.0,67,0.00,,CLR,0.00,VWS V14.01,2013-06-09 13:26:00,
2013-06-09 08:27:00,70.7,58.8,29.87,South,183,0.0,9.0,66,0.00,,CLR,0.00,VWS V14.01,2013-06-09 13:27:00,
2013-06-09 08:28:00,70.7,58.8,29.87,South,179,0.0,9.0,66,0.00,,CLR,0.00,VWS V14.01,2013-06-09 13:28:00,
2013-06-09 08:30:00,70.8,59.3,29.87,SSE,164,0.0,9.0,67,0.00,,SCT120,0.00,VWS V14.01,2013-06-09 13:30:00,
2013-06-09 08:31:00,70.8,59.3,29.87,South,186,0.0,0.0,67,0.00,,CLR,0.00,VWS V14.01,2013-06-09 13:31:00,
2013-06-09 08:32:00,70.8,58.5,29.87,South,191,0.0,7.0,65,0.00,,CLR,0.00,VWS V14.01,2013-06-09 13:32:00,
2013-06-09 08:33:00,70.8,58.9,29.87,South,179,0.0,7.0,66,0.00,,CLR,0.00,VWS V14.01,2013-06-09 13:33:00,
2013-06-09 08:36:00,70.8,58.5,29.87,SSW,195,0.0,7.0,65,0.00,,CLR,0.00,VWS V14.01,2013-06-09 13:36:00,
2013-06-09 08:37:00,70.8,58.9,29.87,SSW,194,0.0,7.0,66,0.00,,CLR,0.00,VWS V14.01,2013-06-09 13:37:00,
2013-06-09 08:38:00,70.8,58.5,29.87,SE,128,0.0,7.0,65,0.00,,CLR,0.00,VWS V14.01,2013-06-09 13:38:00,
2013-06-09 08:39:00,70.8,58.9,29.87,SSW,206,0.0,7.0,66,0.00,,CLR,0.00,VWS V14.01,2013-06-09 13:39:00,
2013-06-09 08:41:00,71.0,58.7,29.87,South,169,0.0,7.0,65,0.00,,CLR,0.00,VWS V14.01,2013-06-09 13:41:00,
2013-06-09 08:42:00,71.0,58.7,29.87,SSW,207,1.0,10.0,65,0.00,,CLR,0.00,VWS V14.01,2013-06-09 13:42:00,
2013-06-09 08:43:00,70.8,58.5,29.87,SSE,150,0.0,10.0,65,0.00,,CLR,0.00,VWS V14.01,2013-06-09 13:43:00,
2013-06-09 08:44:00,71.0,58.7,29.87,South,185,0.0,10.0,65,0.00,,CLR,0.00,VWS V14.01,2013-06-09 13:44:00,
2013-06-09 08:46:00,71.0,59.1,29.86,South,171,0.0,10.0,66,0.00,,CLR,0.00,VWS V14.01,2013-06-09 13:46:00,
2013-06-09 08:47:00,71.0,58.7,29.86,SSW,195,0.0,10.0,65,0.00,,CLR,0.00,VWS V14.01,2013-06-09 13:47:00,
2013-06-09 08:48:00,71.2,59.3,29.86,SSW,208,0.0,10.0,66,0.00,,CLR,0.00,VWS V14.01,2013-06-09 13:48:00,
2013-06-09 08:49:00,71.4,59.5,29.86,SSW,206,0.0,10.0,66,0.00,,CLR,0.00,VWS V14.01,2013-06-09 13:49:00,
2013-06-09 08:51:00,71.5,60.0,29.86,South,191,3.0,10.0,67,0.00,,CLR,0.00,VWS V14.01,2013-06-09 13:51:00,
2013-06-09 08:52:00,71.7,59.3,29.86,South,187,1.0,10.0,65,0.00,,CLR,0.00,VWS V14.01,2013-06-09 13:52:00,
2013-06-09 08:53:00,71.7,59.3,29.86,SW,215,8.0,10.0,65,0.00,,CLR,0.00,VWS V14.01,2013-06-09 13:53:00,
2013-06-09 08:54:00,71.7,59.3,29.86,South,188,1.0,10.0,65,0.00,,CLR,0.00,VWS V14.01,2013-06-09 13:54:00,
2013-06-09 08:56:00,71.7,59.3,29.86,SSW,196,2.0,10.0,65,0.00,,CLR,0.00,VWS V14.01,2013-06-09 13:56:00,
2013-06-09 08:57:00,71.7,59.3,29.86,SSW,194,0.0,10.0,65,0.00,,CLR,0.00,VWS V14.01,2013-06-09 13:57:00,
2013-06-09 08:58:00,71.7,59.3,29.86,SSW,194,0.0,10.0,65,0.00,,CLR,0.00,VWS V14.01,2013-06-09 13:58:00,
2013-06-09 08:59:00,71.7,59.3,29.86,South,173,1.0,10.0,65,0.00,,CLR,0.00,VWS V14.01,2013-06-09 13:59:00,
2013-06-09 09:00:00,71.7,59.8,29.86,SSW,212,0.0,10.0,66,0.00,,SCT120,0.00,VWS V14.01,2013-06-09 14:00:00,
2013-06-09 09:01:00,71.7,59.3,29.86,SSW,207,0.0,1.0,65,0.00,,CLR,0.00,VWS V14.01,2013-06-09 14:01:00,
2013-06-09 09:02:00,71.7,59.3,29.86,South,182,5.0,5.0,65,0.00,,CLR,0.00,VWS V14.01,2013-06-09 14:02:00,
2013-06-09 09:03:00,71.7,59.3,29.86,South,182,0.0,5.0,65,0.00,,CLR,0.00,VWS V14.01,2013-06-09 14:03:00,
2013-06-09 09:04:00,71.9,59.9,29.86,SSW,194,0.0,5.0,66,0.00,,CLR,0.00,VWS V14.01,2013-06-09 14:04:00,
2013-06-09 09:07:00,72.2,60.2,29.86,SSW,194,1.0,5.0,66,0.00,,CLR,0.00,VWS V14.01,2013-06-09 14:07:00,
2013-06-09 09:08:00,72.4,60.0,29.86,SSW,195,0.0,5.0,65,0.00,,CLR,0.00,VWS V14.01,2013-06-09 14:08:00,
2013-06-09 09:09:00,72.4,60.0,29.86,SSW,195,0.0,5.0,65,0.00,,CLR,0.00,VWS V14.01,2013-06-09 14:09:00,
2013-06-09 09:12:00,72.7,59.8,29.86,South,181,0.0,5.0,64,0.00,,CLR,0.00,VWS V14.01,2013-06-09 14:12:00,
2013-06-09 09:13:00,72.9,60.0,29.86,SSW,201,0.0,5.0,64,0.00,,CLR,0.00,VWS V14.01,2013-06-09 14:13:00,
2013-06-09 09:14:00,72.9,60.0,29.86,South,190,0.0,5.0,64,0.00,,CLR,0.00,VWS V14.01,2013-06-09 14:14:00,
2013-06-09 09:15:00,72.9,60.5,29.86,South,176,0.0,5.0,65,0.00,,CLR,0.00,VWS V14.01,2013-06-09 14:15:00,
2013-06-09 09:17:00,73.2,60.7,29.86,South,173,2.0,5.0,65,0.00,,CLR,0.00,VWS V14.01,2013-06-09 14:17:00,
2013-06-09 09:18:00,73.4,60.5,29.86,South,179,0.0,5.0,64,0.00,,CLR,0.00,VWS V14.01,2013-06-09 14:18:00,
2013-06-09 09:19:00,73.4,60.5,29.86,SSW,198,0.0,5.0,64,0.00,,CLR,0.00,VWS V14.01,2013-06-09 14:19:00,
2013-06-09 09:20:00,73.6,60.7,29.86,ESE,109,0.0,5.0,64,0.00,,CLR,0.00,VWS V14.01,2013-06-09 14:20:00,
2013-06-09 09:22:00,73.8,60.4,29.86,SSW,204,0.0,5.0,63,0.00,,CLR,0.00,VWS V14.01,2013-06-09 14:22:00,
2013-06-09 09:23:00,73.9,61.0,29.86,SSW,197,0.0,5.0,64,0.00,,CLR,0.00,VWS V14.01,2013-06-09 14:23:00,
2013-06-09 09:24:00,73.9,61.0,29.86,SE,132,1.0,5.0,64,0.00,,CLR,0.00,VWS V14.01,2013-06-09 14:24:00,
2013-06-09 09:25:00,73.9,60.5,29.86,SE,146,0.0,5.0,63,0.00,,CLR,0.00,VWS V14.01,2013-06-09 14:25:00,
2013-06-09 09:27:00,74.1,60.7,29.86,SSE,148,0.0,5.0,63,0.00,,CLR,0.00,VWS V14.01,2013-06-09 14:27:00,
2013-06-09 09:28:00,74.3,60.5,29.86,South,183,4.0,5.0,62,0.00,,CLR,0.00,VWS V14.01,2013-06-09 14:28:00,
2013-06-09 09:29:00,74.3,60.5,29.86,SSW,194,0.0,7.0,62,0.00,,CLR,0.00,VWS V14.01,2013-06-09 14:29:00,
2013-06-09 09:30:00,74.3,60.5,29.85,South,177,1.0,7.0,62,0.00,,CLR,0.00,VWS V14.01,2013-06-09 14:30:00,
2013-06-09 09:32:00,74.5,61.1,29.85,South,182,2.0,2.0,63,0.00,,CLR,0.00,VWS V14.01,2013-06-09 14:32:00,
2013-06-09 09:33:00,74.5,60.6,29.85,South,188,2.0,2.0,62,0.00,,CLR,0.00,VWS V14.01,2013-06-09 14:33:00,
2013-06-09 09:34:00,74.3,60.5,29.85,South,187,0.0,2.0,62,0.00,,CLR,0.00,VWS V14.01,2013-06-09 14:34:00,
2013-06-09 09:36:00,74.3,60.5,29.85,South,184,0.0,4.0,62,0.00,,CLR,0.00,VWS V14.01,2013-06-09 14:36:00,
2013-06-09 09:37:00,74.3,60.5,29.85,SSE,158,0.0,4.0,62,0.00,,CLR,0.00,VWS V14.01,2013-06-09 14:37:00,
2013-06-09 09:38:00,74.3,60.5,29.85,SSE,158,0.0,4.0,62,0.00,,CLR,0.00,VWS V14.01,2013-06-09 14:38:00,
2013-06-09 09:39:00,74.5,60.6,29.85,South,175,1.0,4.0,62,0.00,,CLR,0.00,VWS V14.01,2013-06-09 14:39:00,
2013-06-09 09:41:00,74.5,60.2,29.85,South,180,0.0,4.0,61,0.00,,CLR,0.00,VWS V14.01,2013-06-09 14:41:00,
2013-06-09 09:42:00,74.6,60.3,29.85,South,190,0.0,4.0,61,0.00,,CLR,0.00,VWS V14.01,2013-06-09 14:42:00,
2013-06-09 09:43:00,74.6,60.3,29.85,SSW,212,0.0,5.0,61,0.00,,CLR,0.00,VWS V14.01,2013-06-09 14:43:00,
2013-06-09 09:44:00,74.6,60.3,29.85,SSW,211,2.0,6.0,61,0.00,,CLR,0.00,VWS V14.01,2013-06-09 14:44:00,
2013-06-09 09:46:00,74.5,60.2,29.85,SSW,203,0.0,11.0,61,0.00,,CLR,0.00,VWS V14.01,2013-06-09 14:46:00,
2013-06-09 09:48:00,74.5,60.2,29.85,South,188,2.0,11.0,61,0.00,,CLR,0.00,VWS V14.01,2013-06-09 14:48:00,
2013-06-09 09:49:00,74.6,60.3,29.85,SE,140,3.0,11.0,61,0.00,,CLR,0.00,VWS V14.01,2013-06-09 14:49:00,
2013-06-09 09:52:00,74.6,59.8,29.85,SSW,199,3.0,11.0,60,0.00,,CLR,0.00,VWS V14.01,2013-06-09 14:52:00,
2013-06-09 09:53:00,74.8,60.9,29.85,South,188,0.0,11.0,62,0.00,,CLR,0.00,VWS V14.01,2013-06-09 14:53:00,
2013-06-09 09:54:00,74.8,60.9,29.85,South,187,1.0,11.0,62,0.00,,CLR,0.00,VWS V14.01,2013-06-09 14:54:00,
2013-06-09 09:57:00,75.0,59.7,29.85,SSW,200,6.0,11.0,59,0.00,,CLR,0.00,VWS V14.01,2013-06-09 14:57:00,
2013-06-09 09:58:00,75.0,58.8,29.85,SSW,202,2.0,11.0,57,0.00,,CLR,0.00,VWS V14.01,2013-06-09 14:58:00,
2013-06-09 09:59:00,74.8,58.6,29.85,SSW,211,7.0,11.0,57,0.00,,CLR,0.00,VWS V14.01,2013-06-09 14:59:00,
2013-06-09 10:00:00,74.6,58.9,29.85,SSE,161,0.0,11.0,58,0.00,,SCT120,0.00,VWS V14.01,2013-06-09 15:00:00,
2013-06-09 10:02:00,74.8,60.0,29.85,SSW,210,4.0,10.0,60,0.00,,CLR,0.00,VWS V14.01,2013-06-09 15:02:00,
2013-06-09 10:03:00,74.8,58.6,29.85,SW,225,1.0,10.0,57,0.00,,CLR,0.00,VWS V14.01,2013-06-09 15:03:00,
2013-06-09 10:04:00,74.8,59.5,29.85,SSW,211,0.0,10.0,59,0.00,,CLR,0.00,VWS V14.01,2013-06-09 15:04:00,
2013-06-09 10:05:00,75.0,59.7,29.85,South,190,0.0,10.0,59,0.00,,CLR,0.00,VWS V14.01,2013-06-09 15:05:00,
2013-06-09 10:07:00,75.0,59.7,29.85,SSW,200,0.0,10.0,59,0.00,,CLR,0.00,VWS V14.01,2013-06-09 15:07:00,
2013-06-09 10:08:00,75.2,59.9,29.85,SSW,192,0.0,10.0,59,0.00,,CLR,0.00,VWS V14.01,2013-06-09 15:08:00,
2013-06-09 10:09:00,75.3,60.9,29.85,SSW,192,0.0,10.0,61,0.00,,CLR,0.00,VWS V14.01,2013-06-09 15:09:00,
2013-06-09 10:10:00,75.5,60.7,29.85,SSW,192,0.0,10.0,60,0.00,,CLR,0.00,VWS V14.01,2013-06-09 15:10:00,
2013-06-09 10:12:00,75.7,61.3,29.85,SSE,162,0.0,10.0,61,0.00,,CLR,0.00,VWS V14.01,2013-06-09 15:12:00,
2013-06-09 10:13:00,75.7,59.9,29.85,South,190,0.0,10.0,58,0.00,,CLR,0.00,VWS V14.01,2013-06-09 15:13:00,
2013-06-09 10:14:00,75.7,59.9,29.85,South,171,0.0,10.0,58,0.00,,CLR,0.00,VWS V14.01,2013-06-09 15:14:00,
2013-06-09 10:16:00,75.7,59.9,29.84,SE,131,0.0,10.0,58,0.00,,CLR,0.00,VWS V14.01,2013-06-09 15:16:00,
2013-06-09 10:17:00,75.9,60.6,29.84,SSE,167,0.0,10.0,59,0.00,,CLR,0.00,VWS V14.01,2013-06-09 15:17:00,
2013-06-09 10:18:00,75.9,60.1,29.84,SSW,202,1.0,10.0,58,0.00,,CLR,0.00,VWS V14.01,2013-06-09 15:18:00,
2013-06-09 10:19:00,75.9,60.6,29.84,SSW,198,0.0,10.0,59,0.00,,CLR,0.00,VWS V14.01,2013-06-09 15:19:00,
2013-06-09 10:21:00,75.9,61.0,29.84,SSW,192,10.0,10.0,60,0.00,,CLR,0.00,VWS V14.01,2013-06-09 15:21:00,
2013-06-09 10:22:00,75.7,59.9,29.84,SE,128,3.0,10.0,58,0.00,,CLR,0.00,VWS V14.01,2013-06-09 15:22:00,
2013-06-09 10:24:00,75.7,59.4,29.84,WSW,248,5.0,10.0,57,0.00,,CLR,0.00,VWS V14.01,2013-06-09 15:24:00,
2013-06-09 10:26:00,75.7,59.9,29.84,SSW,200,0.0,10.0,58,0.00,,CLR,0.00,VWS V14.01,2013-06-09 15:26:00,
2013-06-09 10:27:00,75.7,59.9,29.84,SSW,196,0.0,10.0,58,0.00,,CLR,0.00,VWS V14.01,2013-06-09 15:27:00,
2013-06-09 10:29:00,75.7,59.9,29.84,SSW,199,6.0,10.0,58,0.00,,CLR,0.00,VWS V14.01,2013-06-09 15:29:00,
2013-06-09 10:30:00,75.5,59.7,29.84,South,173,1.0,10.0,58,0.00,,CLR,0.00,VWS V14.01,2013-06-09 15:30:00,
2013-06-09 10:32:00,75.5,59.2,29.84,South,185,2.0,4.0,57,0.00,,CLR,0.00,VWS V14.01,2013-06-09 15:32:00,
2013-06-09 10:34:00,75.7,59.9,29.84,SSW,196,6.0,7.0,58,0.00,,CLR,0.00,VWS V14.01,2013-06-09 15:34:00,
2013-06-09 10:35:00,75.7,59.4,29.84,SSW,196,4.0,7.0,57,0.00,,CLR,0.00,VWS V14.01,2013-06-09 15:35:00,
2013-06-09 10:37:00,75.7,59.9,29.84,SSW,207,4.0,10.0,58,0.00,,CLR,0.00,VWS V14.01,2013-06-09 15:37:00,
2013-06-09 10:39:00,75.9,60.6,29.84,SSW,207,0.0,10.0,59,0.00,,CLR,0.00,VWS V14.01,2013-06-09 15:39:00,
2013-06-09 10:40:00,76.0,60.7,29.84,SE,126,5.0,10.0,59,0.00,,CLR,0.00,VWS V14.01,2013-06-09 15:40:00,
2013-06-09 10:42:00,76.2,60.4,29.84,SSW,205,5.0,10.0,58,0.00,,CLR,0.00,VWS V14.01,2013-06-09 15:42:00,
2013-06-09 10:44:00,76.4,60.5,29.84,South,188,0.0,10.0,58,0.00,,CLR,0.00,VWS V14.01,2013-06-09 15:44:00,
2013-06-09 10:45:00,76.4,60.5,29.84,South,175,0.0,10.0,58,0.00,,CLR,0.00,VWS V14.01,2013-06-09 15:45:00,
2013-06-09 10:47:00,76.2,59.4,29.84,SSW,202,0.0,11.0,56,0.00,,SCT085,0.00,VWS V14.01,2013-06-09 15:47:00,
2013-06-09 10:48:00,76.2,59.9,29.84,SSW,201,0.0,11.0,57,0.00,,SCT085,0.00,VWS V14.01,2013-06-09 15:48:00,
2013-06-09 10:49:00,76.4,60.5,29.84,SSW,207,3.0,13.0,58,0.00,,SCT085,0.00,VWS V14.01,2013-06-09 15:49:00,
2013-06-09 10:50:00,76.4,60.5,29.84,SSW,205,3.0,13.0,58,0.00,,SCT085,0.00,VWS V14.01,2013-06-09 15:50:00,
2013-06-09 10:52:00,76.2,59.9,29.84,SSW,194,5.0,13.0,57,0.00,,SCT085,0.00,VWS V14.01,2013-06-09 15:52:00,
2013-06-09 10:53:00,76.2,59.4,29.84,South,184,1.0,13.0,56,0.00,,SCT085,0.00,VWS V14.01,2013-06-09 15:53:00,
2013-06-09 10:55:00,76.2,60.4,29.84,SSE,153,7.0,13.0,58,0.00,,SCT085,0.00,VWS V14.01,2013-06-09 15:55:00,
2013-06-09 10:57:00,76.2,59.4,29.84,South,171,0.0,13.0,56,0.00,,SCT085,0.00,VWS V14.01,2013-06-09 15:57:00,
2013-06-09 10:58:00,76.2,60.4,29.84,ESE,123,1.0,13.0,58,0.00,,SCT085,0.00,VWS V14.01,2013-06-09 15:58:00,
2013-06-09 11:00:00,76.2,60.4,29.84,SE,139,0.0,13.0,58,0.00,,SCT085,0.00,VWS V14.01,2013-06-09 16:00:00,
2013-06-09 11:03:00,76.6,60.7,29.84,South,190,0.0,3.0,58,0.00,,SCT085,0.00,VWS V14.01,2013-06-09 16:03:00,
2013-06-09 11:04:00,76.6,60.7,29.84,SSE,155,0.0,3.0,58,0.00,,SCT085,0.00,VWS V14.01,2013-06-09 16:04:00,
2013-06-09 11:05:00,76.6,61.2,29.84,SE,142,0.0,3.0,59,0.00,,SCT085,0.00,VWS V14.01,2013-06-09 16:05:00,
2013-06-09 11:06:00,76.7,61.3,29.84,South,173,0.0,3.0,59,0.00,,SCT085,0.00,VWS V14.01,2013-06-09 16:06:00,
2013-06-09 11:08:00,76.9,60.5,29.84,SSE,165,0.0,6.0,57,0.00,,SCT085,0.00,VWS V14.01,2013-06-09 16:08:00,
2013-06-09 11:09:00,77.1,61.2,29.84,South,182,1.0,6.0,58,0.00,,SCT085,0.00,VWS V14.01,2013-06-09 16:09:00,
2013-06-09 11:10:00,77.3,61.4,29.84,South,187,0.0,7.0,58,0.00,,SCT085,0.00,VWS V14.01,2013-06-09 16:10:00,
2013-06-09 11:11:00,77.3,61.4,29.84,SSW,200,11.0,11.0,58,0.00,,SCT085,0.00,VWS V14.01,2013-06-09 16:11:00,
2013-06-09 11:12:00,77.3,60.4,29.84,SSW,195,9.0,11.0,56,0.00,,SCT085,0.00,VWS V14.01,2013-06-09 16:12:00,
2013-06-09 11:13:00,77.3,60.4,29.84,ESE,114,1.0,11.0,56,0.00,,SCT085,0.00,VWS V14.01,2013-06-09 16:13:00,
2013-06-09 11:14:00,77.5,61.1,29.84,SSW,213,3.0,11.0,57,0.00,,SCT085,0.00,VWS V14.01,2013-06-09 16:14:00,
2013-06-09 11:15:00,77.5,60.6,29.83,South,188,0.0,11.0,56,0.00,,SCT085,0.00,VWS V14.01,2013-06-09 16:15:00,
2013-06-09 11:16:00,77.6,60.2,29.83,SSW,194,2.0,11.0,55,0.00,,CLR,0.00,VWS V14.01,2013-06-09 16:16:00,
2013-06-09 11:17:00,77.6,60.7,29.83,South,178,0.0,11.0,56,0.00,,CLR,0.00,VWS V14.01,2013-06-09 16:17:00,
2013-06-09 11:18:00,77.5,60.6,29.83,SE,142,0.0,11.0,56,0.00,,CLR,0.00,VWS V14.01,2013-06-09 16:18:00,
2013-06-09 11:19:00,77.5,59.6,29.83,SE,134,0.0,11.0,54,0.00,,CLR,0.00,VWS V14.01,2013-06-09 16:19:00,
2013-06-09 11:20:00,77.5,60.1,29.83,South,187,0.0,11.0,55,0.00,,CLR,0.00,VWS V14.01,2013-06-09 16:20:00,
2013-06-09 11:21:00,77.6,60.7,29.83,South,190,0.0,11.0,56,0.00,,CLR,0.00,VWS V14.01,2013-06-09 16:21:00,
2013-06-09 11:22:00,77.6,60.2,29.83,SSW,207,2.0,11.0,55,0.00,,CLR,0.00,VWS V14.01,2013-06-09 16:22:00,
2013-06-09 11:23:00,77.6,59.7,29.83,SSW,197,0.0,11.0,54,0.00,,CLR,0.00,VWS V14.01,2013-06-09 16:23:00,
2013-06-09 11:24:00,77.6,60.2,29.83,South,182,0.0,11.0,55,0.00,,CLR,0.00,VWS V14.01,2013-06-09 16:24:00,
2013-06-09 11:25:00,77.6,61.2,29.83,South,182,0.0,11.0,57,0.00,,CLR,0.00,VWS V14.01,2013-06-09 16:25:00,
2013-06-09 11:26:00,77.8,61.4,29.83,South,191,0.0,11.0,57,0.00,,CLR,0.00,VWS V14.01,2013-06-09 16:26:00,
2013-06-09 11:27:00,77.8,60.4,29.83,ESE,115,1.0,11.0,55,0.00,,CLR,0.00,VWS V14.01,2013-06-09 16:27:00,
2013-06-09 11:29:00,78.0,60.5,29.83,SSW,199,0.0,11.0,55,0.00,,CLR,0.00,VWS V14.01,2013-06-09 16:29:00,
2013-06-09 11:30:00,78.0,60.5,29.83,SSW,196,0.0,11.0,55,0.00,,CLR,0.00,VWS V14.01,2013-06-09 16:30:00,
2013-06-09 11:32:00,77.8,60.4,29.83,SSW,203,4.0,7.0,55,0.00,,CLR,0.00,VWS V14.01,2013-06-09 16:32:00,
2013-06-09 11:33:00,77.6,60.7,29.83,South,171,0.0,7.0,56,0.00,,CLR,0.00,VWS V14.01,2013-06-09 16:33:00,
2013-06-09 11:34:00,77.6,61.2,29.83,SW,225,1.0,7.0,57,0.00,,CLR,0.00,VWS V14.01,2013-06-09 16:34:00,
2013-06-09 11:35:00,77.6,61.2,29.83,SSW,210,1.0,11.0,57,0.00,,CLR,0.00,VWS V14.01,2013-06-09 16:35:00,
2013-06-09 11:37:00,77.8,61.4,29.83,SSE,147,0.0,11.0,57,0.00,,CLR,0.00,VWS V14.01,2013-06-09 16:37:00,
2013-06-09 11:38:00,78.0,61.5,29.83,SSE,147,0.0,11.0,57,0.00,,CLR,0.00,VWS V14.01,2013-06-09 16:38:00,
2013-06-09 11:39:00,78.0,61.5,29.83,South,190,0.0,11.0,57,0.00,,CLR,0.00,VWS V14.01,2013-06-09 16:39:00,
2013-06-09 11:40:00,78.0,61.5,29.83,SSW,209,7.0,16.0,57,0.00,,CLR,0.00,VWS V14.01,2013-06-09 16:40:00,
2013-06-09 11:42:00,77.8,60.9,29.83,SSW,205,1.0,16.0,56,0.00,,CLR,0.00,VWS V14.01,2013-06-09 16:42:00,
2013-06-09 11:43:00,77.8,60.9,29.83,SSE,154,2.0,16.0,56,0.00,,CLR,0.00,VWS V14.01,2013-06-09 16:43:00,
2013-06-09 11:45:00,77.8,61.9,29.82,SSW,194,4.0,16.0,58,0.00,,CLR,0.00,VWS V14.01,2013-06-09 16:45:00,
2013-06-09 11:46:00,77.8,60.9,29.82,SSW,196,0.0,16.0,56,0.00,,SCT085,0.00,VWS V14.01,2013-06-09 16:46:00,
2013-06-09 11:47:00,77.8,61.4,29.82,South,185,4.0,16.0,57,0.00,,SCT085,0.00,VWS V14.01,2013-06-09 16:47:00,
2013-06-09 11:48:00,78.0,61.5,29.82,SW,221,5.0,16.0,57,0.00,,SCT085,0.00,VWS V14.01,2013-06-09 16:48:00,
2013-06-09 11:50:00,78.0,61.0,29.82,SSE,152,6.0,16.0,56,0.00,,SCT085,0.00,VWS V14.01,2013-06-09 16:50:00,
2013-06-09 11:52:00,78.2,61.7,29.82,SSW,195,2.0,16.0,57,0.00,,SCT085,0.00,VWS V14.01,2013-06-09 16:52:00,
2013-06-09 11:53:00,78.2,61.2,29.82,South,176,0.0,16.0,56,0.00,,SCT085,0.00,VWS V14.01,2013-06-09 16:53:00,
2013-06-09 11:54:00,78.2,61.7,29.82,South,187,0.0,16.0,57,0.00,,SCT085,0.00,VWS V14.01,2013-06-09 16:54:00,
2013-06-09 11:55:00,78.4,61.9,29.82,SW,215,0.0,16.0,57,0.00,,SCT085,0.00,VWS V14.01,2013-06-09 16:55:00,
2013-06-09 11:57:00,78.5,62.0,29.82,SSW,192,2.0,16.0,57,0.00,,SCT085,0.00,VWS V14.01,2013-06-09 16:57:00,
2013-06-09 11:58:00,78.5,61.0,29.82,SW,215,6.0,16.0,55,0.00,,SCT085,0.00,VWS V14.01,2013-06-09 16:58:00,
2013-06-09 11:59:00,78.5,61.5,29.82,SSW,194,7.0,16.0,56,0.00,,SCT085,0.00,VWS V14.01,2013-06-09 16:59:00,
2013-06-09 12:00:00,78.5,61.0,29.82,South,177,0.0,16.0,55,0.00,,SCT085,0.00,VWS V14.01,2013-06-09 17:00:00,
2013-06-09 12:02:00,78.4,61.4,29.82,SW,229,10.0,16.0,56,0.00,,CLR,0.00,VWS V14.01,2013-06-09 17:02:00,
2013-06-09 12:03:00,78.2,60.7,29.82,South,182,3.0,16.0,55,0.00,,CLR,0.00,VWS V14.01,2013-06-09 17:03:00,
2013-06-09 12:04:00,78.2,60.7,29.82,East,91,3.0,16.0,55,0.00,,CLR,0.00,VWS V14.01,2013-06-09 17:04:00,
2013-06-09 12:05:00,78.2,61.2,29.82,South,169,0.0,16.0,56,0.00,,CLR,0.00,VWS V14.01,2013-06-09 17:05:00,
2013-06-09 12:07:00,78.0,60.5,29.82,South,187,6.0,16.0,55,0.00,,CLR,0.00,VWS V14.01,2013-06-09 17:07:00,
2013-06-09 12:08:00,78.0,60.5,29.82,SSW,194,0.0,16.0,55,0.00,,CLR,0.00,VWS V14.01,2013-06-09 17:08:00,
2013-06-09 12:09:00,78.0,61.0,29.82,ESE,123,2.0,16.0,56,0.00,,CLR,0.00,VWS V14.01,2013-06-09 17:09:00,
2013-06-09 12:10:00,78.0,61.0,29.82,SSW,195,0.0,16.0,56,0.00,,CLR,0.00,VWS V14.01,2013-06-09 17:10:00,
2013-06-09 12:13:00,78.0,60.5,29.82,SSW,197,5.0,16.0,55,0.00,,CLR,0.00,VWS V14.01,2013-06-09 17:13:00,
2013-06-09 12:14:00,78.0,60.5,29.82,SSE,152,0.0,16.0,55,0.00,,CLR,0.00,VWS V14.01,2013-06-09 17:14:00,
2013-06-09 12:15:00,78.0,61.0,29.81,SSW,194,0.0,16.0,56,0.00,,CLR,0.00,VWS V14.01,2013-06-09 17:15:00,
2013-06-09 12:18:00,78.0,61.0,29.81,SSW,200,0.0,16.0,56,0.00,,CLR,0.00,VWS V14.01,2013-06-09 17:18:00,
2013-06-09 12:19:00,78.2,61.2,29.81,SSW,197,0.0,16.0,56,0.00,,CLR,0.00,VWS V14.01,2013-06-09 17:19:00,
2013-06-09 12:20:00,78.4,61.9,29.81,SSE,161,0.0,16.0,57,0.00,,CLR,0.00,VWS V14.01,2013-06-09 17:20:00,
2013-06-09 12:23:00,78.4,60.9,29.81,SSW,206,6.0,16.0,55,0.00,,CLR,0.00,VWS V14.01,2013-06-09 17:23:00,
2013-06-09 12:24:00,78.4,61.4,29.81,SSW,205,5.0,16.0,56,0.00,,CLR,0.00,VWS V14.01,2013-06-09 17:24:00,
2013-06-09 12:25:00,78.4,61.4,29.81,South,188,0.0,16.0,56,0.00,,CLR,0.00,VWS V14.01,2013-06-09 17:25:00,
2013-06-09 12:26:00,78.4,61.4,29.81,South,189,2.0,16.0,56,0.00,,CLR,0.00,VWS V14.01,2013-06-09 17:26:00,
2013-06-09 12:28:00,78.2,60.7,29.81,SW,219,10.0,16.0,55,0.00,,CLR,0.00,VWS V14.01,2013-06-09 17:28:00,
2013-06-09 12:29:00,78.0,60.0,29.81,SSW,202,6.0,16.0,54,0.00,,CLR,0.00,VWS V14.01,2013-06-09 17:29:00,
2013-06-09 12:30:00,78.0,60.0,29.82,SSW,193,0.0,16.0,54,0.00,,CLR,0.00,VWS V14.01,2013-06-09 17:30:00,
2013-06-09 12:33:00,77.6,59.7,29.82,SE,133,2.0,14.0,54,0.00,,CLR,0.00,VWS V14.01,2013-06-09 17:33:00,
2013-06-09 12:34:00,77.6,59.7,29.82,South,180,4.0,14.0,54,0.00,,CLR,0.00,VWS V14.01,2013-06-09 17:34:00,
2013-06-09 12:35:00,77.5,60.1,29.82,South,185,0.0,14.0,55,0.00,,CLR,0.00,VWS V14.01,2013-06-09 17:35:00,
2013-06-09 12:36:00,77.5,60.1,29.82,SSW,206,4.0,14.0,55,0.00,,CLR,0.00,VWS V14.01,2013-06-09 17:36:00,
2013-06-09 12:39:00,77.3,59.9,29.82,SSW,192,3.0,14.0,55,0.00,,CLR,0.00,VWS V14.01,2013-06-09 17:39:00,
2013-06-09 12:40:00,77.3,59.9,29.82,South,188,2.0,14.0,55,0.00,,CLR,0.00,VWS V14.01,2013-06-09 17:40:00,
2013-06-09 12:41:00,77.3,59.4,29.82,SE,125,3.0,14.0,54,0.00,,CLR,0.00,VWS V14.01,2013-06-09 17:41:00,
2013-06-09 12:44:00,77.3,59.9,29.82,South,191,3.0,14.0,55,0.00,,CLR,0.00,VWS V14.01,2013-06-09 17:44:00,
2013-06-09 12:45:00,77.3,59.9,29.81,SSW,194,3.0,14.0,55,0.00,,CLR,0.00,VWS V14.01,2013-06-09 17:45:00,
2013-06-09 12:46:00,77.3,59.9,29.81,SSW,194,0.0,14.0,55,0.00,,CLR,0.00,VWS V14.01,2013-06-09 17:46:00,
2013-06-09 12:49:00,77.3,59.9,29.81,SSE,157,2.0,15.0,55,0.00,,CLR,0.00,VWS V14.01,2013-06-09 17:49:00,
2013-06-09 12:50:00,77.3,59.9,29.81,South,172,3.0,15.0,55,0.00,,CLR,0.00,VWS V14.01,2013-06-09 17:50:00,
2013-06-09 12:51:00,77.3,59.9,29.81,ESE,109,1.0,15.0,55,0.00,,CLR,0.00,VWS V14.01,2013-06-09 17:51:00,
2013-06-09 12:54:00,77.5,60.6,29.81,SSW,197,2.0,15.0,56,0.00,,CLR,0.00,VWS V14.01,2013-06-09 17:54:00,
2013-06-09 12:55:00,77.5,61.1,29.81,South,185,1.0,15.0,57,0.00,,CLR,0.00,VWS V14.01,2013-06-09 17:55:00,
2013-06-09 12:56:00,77.5,61.1,29.81,South,186,1.0,15.0,57,0.00,,CLR,0.00,VWS V14.01,2013-06-09 17:56:00,
2013-06-09 13:00:00,77.5,59.6,29.81,ESE,122,1.0,15.0,54,0.00,,CLR,0.00,VWS V14.01,2013-06-09 18:00:00,
2013-06-09 13:01:00,77.5,59.6,29.81,SSW,204,3.0,3.0,54,0.00,,CLR,0.00,VWS V14.01,2013-06-09 18:01:00,
2013-06-09 13:05:00,77.3,59.4,29.81,South,189,3.0,10.0,54,0.00,,SCT080,0.00,VWS V14.01,2013-06-09 18:05:00,
2013-06-09 13:06:00,77.3,59.4,29.81,South,190,1.0,10.0,54,0.00,,SCT080,0.00,VWS V14.01,2013-06-09 18:06:00,
2013-06-09 13:07:00,77.1,59.2,29.81,South,175,1.0,11.0,54,0.00,,SCT080,0.00,VWS V14.01,2013-06-09 18:07:00,
2013-06-09 13:10:00,77.1,59.2,29.81,South,184,5.0,11.0,54,0.00,,SCT080,0.00,VWS V14.01,2013-06-09 18:10:00,
2013-06-09 13:11:00,76.9,59.0,29.81,South,184,3.0,11.0,54,0.00,,SCT080,0.00,VWS V14.01,2013-06-09 18:11:00,
2013-06-09 13:12:00,76.9,59.0,29.81,SSW,203,5.0,13.0,54,0.00,,SCT080,0.00,VWS V14.01,2013-06-09 18:12:00,
2013-06-09 13:13:00,76.9,59.0,29.81,SSW,202,5.0,13.0,54,0.00,,SCT080,0.00,VWS V14.01,2013-06-09 18:13:00,
2013-06-09 13:15:00,77.1,60.2,29.80,South,184,1.0,13.0,56,0.00,,SCT080,0.00,VWS V14.01,2013-06-09 18:15:00,
2013-06-09 13:16:00,77.1,60.2,29.80,South,186,1.0,13.0,56,0.00,,SCT080,0.00,VWS V14.01,2013-06-09 18:16:00,
2013-06-09 13:17:00,77.1,60.2,29.80,South,173,1.0,13.0,56,0.00,,SCT080,0.00,VWS V14.01,2013-06-09 18:17:00,
2013-06-09 13:18:00,77.3,59.9,29.80,SSE,157,1.0,13.0,55,0.00,,SCT080,0.00,VWS V14.01,2013-06-09 18:18:00,
2013-06-09 13:20:00,77.6,59.7,29.80,SSW,200,7.0,13.0,54,0.00,,SCT080,0.00,VWS V14.01,2013-06-09 18:20:00,
2013-06-09 13:21:00,77.6,59.7,29.80,SW,219,0.0,13.0,54,0.00,,SCT080,0.00,VWS V14.01,2013-06-09 18:21:00,
2013-06-09 13:22:00,77.6,59.7,29.80,SW,216,0.0,13.0,54,0.00,,SCT080,0.00,VWS V14.01,2013-06-09 18:22:00,
2013-06-09 13:23:00,77.8,60.9,29.80,South,188,3.0,13.0,56,0.00,,SCT080,0.00,VWS V14.01,2013-06-09 18:23:00,
2013-06-09 13:26:00,77.8,59.8,29.80,South,175,3.0,16.0,54,0.00,,SCT080,0.00,VWS V14.01,2013-06-09 18:26:00,
2013-06-09 13:27:00,77.8,59.3,29.80,SE,136,0.0,16.0,53,0.00,,SCT080,0.00,VWS V14.01,2013-06-09 18:27:00,
2013-06-09 13:28:00,77.8,59.3,29.80,South,191,0.0,16.0,53,0.00,,SCT080,0.00,VWS V14.01,2013-06-09 18:28:00,
2013-06-09 13:30:00,78.0,61.0,29.79,ESE,115,0.0,16.0,56,0.00,,SCT120,0.00,VWS V14.01,2013-06-09 18:30:00,
2013-06-09 13:31:00,78.0,61.0,29.79,ENE,74,2.0,4.0,56,0.00,,SCT080,0.00,VWS V14.01,2013-06-09 18:31:00,
2013-06-09 13:32:00,78.0,61.0,29.79,SE,143,0.0,4.0,56,0.00,,SCT080,0.00,VWS V14.01,2013-06-09 18:32:00,
2013-06-09 13:33:00,78.0,60.5,29.79,SE,136,3.0,10.0,55,0.00,,SCT080,0.00,VWS V14.01,2013-06-09 18:33:00,
2013-06-09 13:37:00,78.0,61.5,29.79,SSW,196,0.0,10.0,57,0.00,,SCT080,0.00,VWS V14.01,2013-06-09 18:37:00,
2013-06-09 13:38:00,78.0,61.0,29.79,SE,128,0.0,10.0,56,0.00,,SCT080,0.00,VWS V14.01,2013-06-09 18:38:00,
2013-06-09 13:42:00,77.8,60.4,29.79,South,188,0.0,14.0,55,0.00,,SCT080,0.00,VWS V14.01,2013-06-09 18:42:00,
2013-06-09 13:43:00,77.8,60.4,29.79,SSW,204,3.0,14.0,55,0.00,,SCT080,0.00,VWS V14.01,2013-06-09 18:43:00,
2013-06-09 13:47:00,77.8,60.9,29.78,WSW,238,9.0,14.0,56,0.00,,SCT080,0.00,VWS V14.01,2013-06-09 18:47:00,
2013-06-09 13:48:00,77.8,60.4,29.78,SSW,210,3.0,14.0,55,0.00,,SCT080,0.00,VWS V14.01,2013-06-09 18:48:00,
2013-06-09 13:52:00,77.8,60.4,29.78,SE,138,6.0,14.0,55,0.00,,SCT080,0.00,VWS V14.01,2013-06-09 18:52:00,
2013-06-09 13:54:00,77.8,60.9,29.78,SSW,198,5.0,14.0,56,0.00,,SCT080,0.00,VWS V14.01,2013-06-09 18:54:00,
2013-06-09 13:57:00,77.6,60.2,29.78,South,181,1.0,14.0,55,0.00,,SCT080,0.00,VWS V14.01,2013-06-09 18:57:00,
2013-06-09 13:58:00,77.6,60.2,29.78,South,182,2.0,14.0,55,0.00,,SCT080,0.00,VWS V14.01,2013-06-09 18:58:00,
2013-06-09 13:59:00,77.6,60.7,29.78,South,182,0.0,14.0,56,0.00,,SCT080,0.00,VWS V14.01,2013-06-09 18:59:00,
2013-06-09 14:00:00,77.6,59.7,29.78,South,177,3.0,14.0,54,0.00,,SCT120,0.00,VWS V14.01,2013-06-09 19:00:00,
2013-06-09 14:02:00,77.6,61.2,29.78,South,175,7.0,7.0,57,0.00,,SCT090,0.00,VWS V14.01,2013-06-09 19:02:00,
2013-06-09 14:03:00,77.6,61.2,29.78,SSE,148,9.0,9.0,57,0.00,,SCT090,0.00,VWS V14.01,2013-06-09 19:03:00,
2013-06-09 14:04:00,77.5,59.6,29.78,SW,216,6.0,14.0,54,0.00,,SCT090,0.00,VWS V14.01,2013-06-09 19:04:00,
2013-06-09 14:07:00,77.3,59.9,29.78,South,183,3.0,16.0,55,0.00,,SCT090,0.00,VWS V14.01,2013-06-09 19:07:00,
2013-06-09 14:08:00,77.3,59.9,29.78,SSE,165,1.0,16.0,55,0.00,,SCT090,0.00,VWS V14.01,2013-06-09 19:08:00,
2013-06-09 14:09:00,77.1,59.7,29.78,SW,215,3.0,16.0,55,0.00,,SCT090,0.00,VWS V14.01,2013-06-09 19:09:00,
2013-06-09 14:12:00,77.1,60.7,29.78,South,188,1.0,16.0,57,0.00,,SCT090,0.00,VWS V14.01,2013-06-09 19:12:00,
2013-06-09 14:13:00,77.1,60.2,29.78,South,186,0.0,16.0,56,0.00,,SCT090,0.00,VWS V14.01,2013-06-09 19:13:00,
2013-06-09 14:14:00,77.1,60.7,29.78,SSE,160,0.0,16.0,57,0.00,,SCT090,0.00,VWS V14.01,2013-06-09 19:14:00,
2013-06-09 14:17:00,76.9,59.5,29.77,ESE,118,2.0,16.0,55,0.00,,SCT090,0.00,VWS V14.01,2013-06-09 19:17:00,
2013-06-09 14:18:00,76.9,59.5,29.77,SSW,196,0.0,16.0,55,0.00,,SCT090,0.00,VWS V14.01,2013-06-09 19:18:00,
2013-06-09 14:19:00,76.9,60.0,29.77,SE,138,2.0,16.0,56,0.00,,SCT090,0.00,VWS V14.01,2013-06-09 19:19:00,
2013-06-09 14:22:00,76.7,59.8,29.77,South,183,0.0,16.0,56,0.00,,SCT090,0.00,VWS V14.01,2013-06-09 19:22:00,
2013-06-09 14:23:00,76.7,60.3,29.77,South,176,1.0,16.0,57,0.00,,SCT090,0.00,VWS V14.01,2013-06-09 19:23:00,
2013-06-09 14:24:00,76.7,60.3,29.77,South,186,0.0,16.0,57,0.00,,SCT090,0.00,VWS V14.01,2013-06-09 19:24:00,
2013-06-09 14:27:00,76.6,60.7,29.77,South,174,0.0,16.0,58,0.00,,SCT090,0.00,VWS V14.01,2013-06-09 19:27:00,
2013-06-09 14:28:00,76.6,60.7,29.77,South,174,0.0,16.0,58,0.00,,SCT090,0.00,VWS V14.01,2013-06-09 19:28:00,
2013-06-09 14:29:00,76.6,60.7,29.77,ESE,122,4.0,16.0,58,0.00,,SCT090,0.00,VWS V14.01,2013-06-09 19:29:00,
2013-06-09 14:30:00,76.6,60.7,29.78,South,190,0.0,16.0,58,0.00,,SCT090,0.00,VWS V14.01,2013-06-09 19:30:00,
2013-06-09 14:32:00,76.4,60.5,29.78,South,190,1.0,7.0,58,0.00,,SCT090,0.00,VWS V14.01,2013-06-09 19:32:00,
2013-06-09 14:33:00,76.4,60.5,29.78,South,187,0.0,7.0,58,0.00,,SCT090,0.00,VWS V14.01,2013-06-09 19:33:00,
2013-06-09 14:34:00,76.4,61.0,29.78,South,182,0.0,7.0,59,0.00,,SCT090,0.00,VWS V14.01,2013-06-09 19:34:00,
2013-06-09 14:35:00,76.4,61.0,29.78,South,173,0.0,7.0,59,0.00,,SCT090,0.00,VWS V14.01,2013-06-09 19:35:00,
2013-06-09 14:38:00,76.2,60.8,29.78,SSW,195,2.0,7.0,59,0.00,,SCT090,0.00,VWS V14.01,2013-06-09 19:38:00,
2013-06-09 14:39:00,76.2,60.4,29.78,SSW,195,0.0,7.0,58,0.00,,SCT090,0.00,VWS V14.01,2013-06-09 19:39:00,
2013-06-09 14:40:00,76.0,60.7,29.78,SSW,195,0.0,7.0,59,0.00,,SCT090,0.00,VWS V14.01,2013-06-09 19:40:00,
2013-06-09 14:43:00,76.0,60.7,29.78,South,187,1.0,7.0,59,0.00,,SCT090,0.00,VWS V14.01,2013-06-09 19:43:00,
2013-06-09 14:44:00,75.9,60.6,29.78,South,187,0.0,7.0,59,0.00,,SCT090,0.00,VWS V14.01,2013-06-09 19:44:00,
2013-06-09 14:45:00,75.9,61.0,29.78,SW,227,0.0,7.0,60,0.00,,SCT090,0.00,VWS V14.01,2013-06-09 19:45:00,
2013-06-09 14:48:00,74.8,60.9,29.78,West,265,0.0,7.0,62,0.00,,SCT090,0.00,VWS V14.01,2013-06-09 19:48:00,
2013-06-09 14:49:00,74.5,61.1,29.78,West,264,0.0,7.0,63,0.00,,SCT090,0.00,VWS V14.01,2013-06-09 19:49:00,
2013-06-09 14:51:00,73.4,61.4,29.78,SSW,196,0.0,7.0,66,0.00,,SCT090,0.00,VWS V14.01,2013-06-09 19:51:00,
2013-06-09 14:53:00,72.0,61.7,29.78,SW,215,12.0,12.0,70,0.00,,SCT090,0.00,VWS V14.01,2013-06-09 19:53:00,
2013-06-09 14:54:00,71.4,61.5,29.78,SW,226,0.0,12.0,71,0.00,,SCT090,0.00,VWS V14.01,2013-06-09 19:54:00,
2013-06-09 14:55:00,70.8,61.7,29.78,SW,223,0.0,12.0,73,0.00,,SCT090,0.00,VWS V14.01,2013-06-09 19:55:00,
2013-06-09 14:56:00,70.3,61.6,29.78,SW,223,0.0,12.0,74,0.01,,SCT090,0.01,VWS V14.01,2013-06-09 19:56:00,
2013-06-09 14:58:00,69.3,62.2,29.78,SSW,211,0.0,12.0,78,0.02,,SCT090,0.02,VWS V14.01,2013-06-09 19:58:00,
2013-06-09 14:59:00,69.0,62.2,29.78,SSW,211,0.0,12.0,79,0.03,,SCT090,0.03,VWS V14.01,2013-06-09 19:59:00,
2013-06-09 15:00:00,68.7,62.3,29.80,SSW,211,0.0,12.0,80,0.04,,SCT090,0.04,VWS V14.01,2013-06-09 20:00:00,
2013-06-09 15:02:00,67.8,62.1,29.80,SSW,203,0.0,0.0,82,0.08,,OVC065,0.08,VWS V14.01,2013-06-09 20:02:00,
2013-06-09 15:03:00,67.7,62.4,29.80,SSW,213,0.0,0.0,83,0.09,,OVC065,0.09,VWS V14.01,2013-06-09 20:03:00,
2013-06-09 15:04:00,67.3,62.0,29.80,SSW,213,0.0,0.0,83,0.10,,OVC065,0.10,VWS V14.01,2013-06-09 20:04:00,
2013-06-09 15:05:00,67.3,62.3,29.80,SSW,213,0.0,0.0,84,0.10,,OVC065,0.10,VWS V14.01,2013-06-09 20:05:00,
2013-06-09 15:07:00,66.8,62.2,29.80,SSW,213,0.0,0.0,85,0.14,,OVC065,0.14,VWS V14.01,2013-06-09 20:07:00,
2013-06-09 15:08:00,66.7,62.0,29.80,SSW,213,0.0,0.0,85,0.14,,OVC065,0.14,VWS V14.01,2013-06-09 20:08:00,
2013-06-09 15:09:00,66.3,62.0,29.80,SSW,213,0.0,0.0,86,0.15,,OVC065,0.15,VWS V14.01,2013-06-09 20:09:00,
2013-06-09 15:10:00,66.3,62.0,29.80,SSW,213,0.0,0.0,86,0.15,,OVC065,0.15,VWS V14.01,2013-06-09 20:10:00,
2013-06-09 15:13:00,66.0,62.0,29.80,SSW,213,0.0,0.0,87,0.18,,OVC065,0.18,VWS V14.01,2013-06-09 20:13:00,
2013-06-09 15:15:00,66.0,62.3,29.81,SSW,213,0.0,0.0,88,0.20,,OVC065,0.20,VWS V14.01,2013-06-09 20:15:00,
2013-06-09 15:18:00,65.9,62.2,29.81,SSW,213,0.0,0.0,88,0.22,,OVC065,0.22,VWS V14.01,2013-06-09 20:18:00,
2013-06-09 15:20:00,65.7,62.0,29.81,SSW,213,0.0,0.0,88,0.23,,OVC065,0.23,VWS V14.01,2013-06-09 20:20:00,
2013-06-09 15:23:00,65.4,62.1,29.81,SSW,205,0.0,1.0,89,0.25,,OVC065,0.25,VWS V14.01,2013-06-09 20:23:00,
2013-06-09 15:25:00,65.2,61.9,29.81,SSW,205,0.0,1.0,89,0.27,,OVC065,0.27,VWS V14.01,2013-06-09 20:25:00,
2013-06-09 15:28:00,65.2,62.2,29.81,SSW,205,0.0,1.0,90,0.34,,OVC065,0.34,VWS V14.01,2013-06-09 20:28:00,
2013-06-09 15:29:00,65.2,62.2,29.81,SSW,205,0.0,1.0,90,0.34,,OVC065,0.34,VWS V14.01,2013-06-09 20:29:00,
2013-06-09 15:30:00,65.1,62.1,29.80,SSW,205,0.0,1.0,90,0.35,,OVC065,0.35,VWS V14.01,2013-06-09 20:30:00,
2013-06-09 15:31:00,65.2,62.2,29.80,SSW,205,0.0,0.0,90,0.35,,OVC065,0.35,VWS V14.01,2013-06-09 20:31:00,
2013-06-09 15:34:00,65.1,62.1,29.80,SSW,203,0.0,0.0,90,0.36,,OVC065,0.36,VWS V14.01,2013-06-09 20:34:00,
2013-06-09 15:35:00,65.1,62.1,29.80,SSW,202,0.0,0.0,90,0.37,,OVC065,0.37,VWS V14.01,2013-06-09 20:35:00,
2013-06-09 15:36:00,65.1,62.4,29.80,SSW,202,0.0,0.0,91,0.37,,OVC065,0.37,VWS V14.01,2013-06-09 20:36:00,
2013-06-09 15:39:00,65.1,62.4,29.80,South,188,0.0,2.0,91,0.38,,OVC065,0.38,VWS V14.01,2013-06-09 20:39:00,
2013-06-09 15:40:00,65.1,62.4,29.80,South,189,0.0,2.0,91,0.38,,OVC065,0.38,VWS V14.01,2013-06-09 20:40:00,
2013-06-09 15:41:00,65.1,62.4,29.80,South,189,0.0,2.0,91,0.39,,OVC065,0.39,VWS V14.01,2013-06-09 20:41:00,
2013-06-09 15:44:00,65.2,62.5,29.80,South,189,0.0,2.0,91,0.39,,OVC065,0.39,VWS V14.01,2013-06-09 20:44:00,
2013-06-09 15:45:00,65.2,62.5,29.80,South,189,0.0,2.0,91,0.39,,OVC065,0.39,VWS V14.01,2013-06-09 20:45:00,
2013-06-09 15:46:00,65.2,62.5,29.80,South,189,0.0,2.0,91,0.40,,OVC065,0.40,VWS V14.01,2013-06-09 20:46:00,
2013-06-09 15:49:00,65.2,62.8,29.80,South,188,0.0,2.0,92,0.40,,OVC065,0.40,VWS V14.01,2013-06-09 20:49:00,
2013-06-09 15:50:00,65.2,62.8,29.80,South,188,0.0,2.0,92,0.40,,OVC065,0.40,VWS V14.01,2013-06-09 20:50:00,
2013-06-09 15:51:00,65.4,63.0,29.80,South,188,0.0,2.0,92,0.40,,OVC065,0.40,VWS V14.01,2013-06-09 20:51:00,
2013-06-09 15:54:00,65.4,63.0,29.80,South,188,0.0,2.0,92,0.41,,OVC065,0.41,VWS V14.01,2013-06-09 20:54:00,
2013-06-09 15:55:00,65.5,63.1,29.80,South,188,0.0,2.0,92,0.41,,OVC065,0.41,VWS V14.01,2013-06-09 20:55:00,
2013-06-09 15:56:00,65.5,63.1,29.80,SSW,195,4.0,4.0,92,0.41,,OVC065,0.41,VWS V14.01,2013-06-09 20:56:00,
2013-06-09 15:59:00,65.5,63.1,29.80,South,178,4.0,5.0,92,0.41,,OVC065,0.41,VWS V14.01,2013-06-09 20:59:00,
2013-06-09 16:00:00,65.5,63.1,29.80,South,180,0.0,5.0,92,0.41,,OVC065,0.41,VWS V14.01,2013-06-09 21:00:00,
2013-06-09 16:01:00,65.5,63.1,29.80,South,180,0.0,0.0,92,0.36,,OVC065,0.41,VWS V14.01,2013-06-09 21:01:00,
2013-06-09 16:02:00,65.5,63.1,29.80,South,180,0.0,0.0,92,0.36,,-RA,0.41,VWS V14.01,2013-06-09 21:02:00,
2013-06-09 16:04:00,65.7,63.3,29.80,South,180,0.0,0.0,92,0.36,,-RA,0.41,VWS V14.01,2013-06-09 21:04:00,
2013-06-09 16:05:00,65.7,63.3,29.80,South,180,0.0,0.0,92,0.36,,-RA,0.41,VWS V14.01,2013-06-09 21:05:00,
2013-06-09 16:06:00,65.7,63.3,29.80,South,180,0.0,0.0,92,0.36,,-RA,0.41,VWS V14.01,2013-06-09 21:06:00,
2013-06-09 16:07:00,65.9,63.5,29.80,South,180,0.0,0.0,92,0.36,,-RA,0.41,VWS V14.01,2013-06-09 21:07:00,
2013-06-09 16:09:00,65.9,63.5,29.80,South,180,0.0,2.0,92,0.37,,-RA,0.42,VWS V14.01,2013-06-09 21:09:00,
2013-06-09 16:10:00,65.9,63.5,29.80,South,180,0.0,2.0,92,0.37,,-RA,0.42,VWS V14.01,2013-06-09 21:10:00,
2013-06-09 16:11:00,65.7,63.3,29.80,South,180,0.0,2.0,92,0.37,,-RA,0.42,VWS V14.01,2013-06-09 21:11:00,
2013-06-09 16:12:00,65.7,63.3,29.80,South,180,0.0,2.0,92,0.37,,-RA,0.42,VWS V14.01,2013-06-09 21:12:00,
2013-06-09 16:14:00,65.7,63.3,29.80,South,180,0.0,2.0,92,0.37,,-RA,0.42,VWS V14.01,2013-06-09 21:14:00,
2013-06-09 16:15:00,65.7,63.3,29.79,South,180,0.0,2.0,92,0.37,,-RA,0.42,VWS V14.01,2013-06-09 21:15:00,
2013-06-09 16:17:00,65.7,63.3,29.79,South,180,0.0,2.0,92,0.37,,-RA,0.42,VWS V14.01,2013-06-09 21:17:00,
2013-06-09 16:19:00,65.5,63.1,29.79,South,180,0.0,2.0,92,0.37,,-RA,0.42,VWS V14.01,2013-06-09 21:19:00,
2013-06-09 16:20:00,65.5,63.1,29.79,South,180,0.0,2.0,92,0.37,,-RA,0.42,VWS V14.01,2013-06-09 21:20:00,
2013-06-09 16:22:00,65.5,63.1,29.79,South,180,0.0,2.0,92,0.37,,-RA,0.42,VWS V14.01,2013-06-09 21:22:00,
2013-06-09 16:24:00,65.7,63.3,29.79,South,180,0.0,2.0,92,0.37,,-RA,0.42,VWS V14.01,2013-06-09 21:24:00,
2013-06-09 16:25:00,65.7,63.3,29.79,South,180,0.0,2.0,92,0.37,,-RA,0.42,VWS V14.01,2013-06-09 21:25:00,
2013-06-09 16:27:00,65.7,63.3,29.79,South,180,0.0,2.0,92,0.37,,-RA,0.42,VWS V14.01,2013-06-09 21:27:00,
2013-06-09 16:29:00,65.7,63.3,29.79,South,180,0.0,2.0,92,0.37,,-RA,0.42,VWS V14.01,2013-06-09 21:29:00,
2013-06-09 16:30:00,65.7,63.3,29.78,South,180,0.0,2.0,92,0.37,,-RA,0.42,VWS V14.01,2013-06-09 21:30:00,
2013-06-09 16:32:00,65.7,63.3,29.78,South,180,0.0,0.0,92,0.07,,-RA,0.42,VWS V14.01,2013-06-09 21:32:00,
2013-06-09 16:33:00,65.7,63.3,29.78,South,180,0.0,0.0,92,0.07,,-RA,0.42,VWS V14.01,2013-06-09 21:33:00,
2013-06-09 16:34:00,65.9,63.5,29.78,South,180,0.0,0.0,92,0.07,,-RA,0.42,VWS V14.01,2013-06-09 21:34:00,
2013-06-09 16:35:00,66.0,63.6,29.78,South,180,0.0,0.0,92,0.07,,-RA,0.42,VWS V14.01,2013-06-09 21:35:00,
2013-06-09 16:37:00,66.0,63.6,29.78,SSE,166,0.0,0.0,92,0.07,,-RA,0.42,VWS V14.01,2013-06-09 21:37:00,
2013-06-09 16:38:00,66.0,63.6,29.78,SE,129,0.0,1.0,92,0.07,,-RA,0.42,VWS V14.01,2013-06-09 21:38:00,
2013-06-09 16:40:00,66.2,63.8,29.78,SE,129,0.0,1.0,92,0.07,,-RA,0.42,VWS V14.01,2013-06-09 21:40:00,
2013-06-09 16:41:00,66.2,63.8,29.78,SE,129,0.0,1.0,92,0.07,,-RA,0.42,VWS V14.01,2013-06-09 21:41:00,
2013-06-09 16:42:00,66.3,63.9,29.78,SE,129,0.0,1.0,92,0.07,,-RA,0.42,VWS V14.01,2013-06-09 21:42:00,
2013-06-09 16:43:00,66.3,63.9,29.78,SE,129,0.0,1.0,92,0.07,,-RA,0.42,VWS V14.01,2013-06-09 21:43:00,
2013-06-09 16:45:00,66.3,63.9,29.77,SE,129,0.0,1.0,92,0.07,,-RA,0.42,VWS V14.01,2013-06-09 21:45:00,
2013-06-09 16:47:00,66.2,63.5,29.77,SSE,155,0.0,1.0,91,0.07,,-RA,0.42,VWS V14.01,2013-06-09 21:47:00,
2013-06-09 16:48:00,66.2,63.5,29.77,SSE,155,0.0,1.0,91,0.07,,-RA,0.42,VWS V14.01,2013-06-09 21:48:00,
2013-06-09 16:50:00,66.0,63.6,29.77,SSE,155,0.0,1.0,92,0.07,,-RA,0.42,VWS V14.01,2013-06-09 21:50:00,
2013-06-09 16:52:00,66.2,63.8,29.77,SSE,155,0.0,1.0,92,0.07,,-RA,0.42,VWS V14.01,2013-06-09 21:52:00,
2013-06-09 16:53:00,66.2,63.8,29.77,SSE,155,0.0,1.0,92,0.07,,-RA,0.42,VWS V14.01,2013-06-09 21:53:00,
2013-06-09 16:55:00,66.3,63.9,29.77,SSE,155,0.0,1.0,92,0.07,,-RA,0.42,VWS V14.01,2013-06-09 21:55:00,
2013-06-09 16:57:00,66.5,64.1,29.77,SSE,155,0.0,1.0,92,0.07,,-RA,0.42,VWS V14.01,2013-06-09 21:57:00,
2013-06-09 16:58:00,66.5,64.1,29.77,SSE,155,0.0,1.0,92,0.07,,-RA,0.42,VWS V14.01,2013-06-09 21:58:00,
2013-06-09 16:59:00,66.5,64.1,29.77,SSE,155,0.0,1.0,92,0.07,,-RA,0.42,VWS V14.01,2013-06-09 21:59:00,
2013-06-09 17:00:00,66.5,64.1,29.77,SSE,155,0.0,1.0,92,0.07,,-RA,0.42,VWS V14.01,2013-06-09 22:00:00,
2013-06-09 17:02:00,66.5,64.1,29.77,SSE,155,0.0,0.0,92,0.01,,BKN100,0.42,VWS V14.01,2013-06-09 22:02:00,
2013-06-09 17:03:00,66.5,64.1,29.77,SSE,155,0.0,0.0,92,0.01,,BKN100,0.42,VWS V14.01,2013-06-09 22:03:00,
2013-06-09 17:04:00,66.3,63.6,29.77,SSE,163,0.0,1.0,91,0.01,,BKN100,0.42,VWS V14.01,2013-06-09 22:04:00,
2013-06-09 17:05:00,66.3,63.6,29.77,SSE,162,0.0,1.0,91,0.01,,BKN100,0.42,VWS V14.01,2013-06-09 22:05:00,
2013-06-09 17:08:00,66.2,63.5,29.77,SSE,162,0.0,1.0,91,0.01,,BKN100,0.42,VWS V14.01,2013-06-09 22:08:00,
2013-06-09 17:09:00,66.2,63.5,29.77,SSE,162,0.0,1.0,91,0.01,,BKN100,0.42,VWS V14.01,2013-06-09 22:09:00,
2013-06-09 17:10:00,66.2,63.5,29.77,SSE,162,0.0,1.0,91,0.01,,BKN100,0.42,VWS V14.01,2013-06-09 22:10:00,
2013-06-09 17:13:00,66.3,63.6,29.77,SSE,162,0.0,1.0,91,0.01,,BKN100,0.42,VWS V14.01,2013-06-09 22:13:00,
2013-06-09 17:14:00,66.3,63.6,29.77,SSE,162,0.0,1.0,91,0.01,,BKN100,0.42,VWS V14.01,2013-06-09 22:14:00,
2013-06-09 17:16:00,66.3,63.9,29.76,SSE,162,0.0,1.0,92,0.01,,BKN100,0.42,VWS V14.01,2013-06-09 22:16:00,
2013-06-09 17:18:00,66.5,63.8,29.76,SSE,162,0.0,1.0,91,0.01,,BKN100,0.42,VWS V14.01,2013-06-09 22:18:00,
2013-06-09 17:19:00,66.5,63.8,29.76,SSE,162,0.0,1.0,91,0.01,,BKN100,0.42,VWS V14.01,2013-06-09 22:19:00,
2013-06-09 17:21:00,66.5,63.8,29.76,SSE,162,0.0,1.0,91,0.01,,BKN100,0.42,VWS V14.01,2013-06-09 22:21:00,
2013-06-09 17:23:00,66.5,63.8,29.76,SSE,162,0.0,1.0,91,0.01,,BKN100,0.42,VWS V14.01,2013-06-09 22:23:00,
2013-06-09 17:24:00,66.5,63.8,29.76,SSE,162,0.0,1.0,91,0.01,,BKN100,0.42,VWS V14.01,2013-06-09 22:24:00,
2013-06-09 17:27:00,66.7,64.3,29.76,SSE,162,0.0,1.0,92,0.01,,BKN100,0.42,VWS V14.01,2013-06-09 22:27:00,
2013-06-09 17:28:00,66.7,64.0,29.76,SSE,162,0.0,1.0,91,0.01,,BKN100,0.42,VWS V14.01,2013-06-09 22:28:00,
2013-06-09 17:29:00,66.7,64.0,29.76,SSE,162,0.0,1.0,91,0.01,,BKN100,0.42,VWS V14.01,2013-06-09 22:29:00,
2013-06-09 17:30:00,66.5,63.8,29.78,SSE,162,0.0,1.0,91,0.01,,SCT120,0.42,VWS V14.01,2013-06-09 22:30:00,
2013-06-09 17:32:00,66.5,64.1,29.78,SSE,162,0.0,0.0,92,0.00,,BKN100,0.42,VWS V14.01,2013-06-09 22:32:00,
2013-06-09 17:33:00,66.5,64.1,29.78,SSE,162,0.0,0.0,92,0.00,,BKN100,0.42,VWS V14.01,2013-06-09 22:33:00,
2013-06-09 17:34:00,66.5,63.8,29.78,SSE,162,0.0,0.0,91,0.00,,BKN100,0.42,VWS V14.01,2013-06-09 22:34:00,
2013-06-09 17:37:00,66.5,64.1,29.78,SSE,159,0.0,0.0,92,0.00,,BKN100,0.42,VWS V14.01,2013-06-09 22:37:00,
2013-06-09 17:38:00,66.5,64.1,29.78,SSE,159,0.0,0.0,92,0.00,,BKN100,0.42,VWS V14.01,2013-06-09 22:38:00,
2013-06-09 17:39:00,66.7,64.3,29.78,ESE,110,2.0,2.0,92,0.00,,BKN100,0.42,VWS V14.01,2013-06-09 22:39:00,
2013-06-09 17:40:00,66.7,64.3,29.78,ESE,112,2.0,3.0,92,0.00,,BKN100,0.42,VWS V14.01,2013-06-09 22:40:00,
2013-06-09 17:42:00,66.3,63.6,29.78,East,101,0.0,4.0,91,0.00,,BKN100,0.42,VWS V14.01,2013-06-09 22:42:00,
2013-06-09 17:43:00,66.3,63.6,29.78,East,101,0.0,4.0,91,0.00,,BKN100,0.42,VWS V14.01,2013-06-09 22:43:00,
2013-06-09 17:44:00,66.3,63.6,29.78,East,101,0.0,4.0,91,0.00,,BKN100,0.42,VWS V14.01,2013-06-09 22:44:00,
2013-06-09 17:45:00,66.3,63.6,29.75,SE,139,0.0,4.0,91,0.00,,BKN100,0.42,VWS V14.01,2013-06-09 22:45:00,
2013-06-09 17:48:00,66.2,63.5,29.75,SE,139,0.0,4.0,91,0.00,,BKN100,0.42,VWS V14.01,2013-06-09 22:48:00,
2013-06-09 17:49:00,66.2,63.5,29.75,SE,139,0.0,4.0,91,0.00,,BKN100,0.42,VWS V14.01,2013-06-09 22:49:00,
2013-06-09 17:50:00,66.2,63.5,29.75,SE,139,0.0,4.0,91,0.00,,BKN100,0.42,VWS V14.01,2013-06-09 22:50:00,
2013-06-09 17:53:00,66.2,63.8,29.75,SE,139,0.0,4.0,92,0.00,,BKN100,0.42,VWS V14.01,2013-06-09 22:53:00,
2013-06-09 17:54:00,66.2,63.5,29.75,SE,139,0.0,4.0,91,0.00,,BKN100,0.42,VWS V14.01,2013-06-09 22:54:00,
2013-06-09 17:55:00,66.3,63.9,29.75,SE,139,0.0,4.0,92,0.00,,BKN100,0.42,VWS V14.01,2013-06-09 22:55:00,
2013-06-09 17:58:00,66.3,63.9,29.75,SE,139,0.0,4.0,92,0.00,,BKN100,0.42,VWS V14.01,2013-06-09 22:58:00,
2013-06-09 17:59:00,66.3,63.6,29.75,SE,139,0.0,4.0,91,0.00,,BKN100,0.42,VWS V14.01,2013-06-09 22:59:00,
2013-06-09 18:00:00,66.3,63.6,29.74,SE,139,0.0,4.0,91,0.00,,BKN100,0.42,VWS V14.01,2013-06-09 23:00:00,
2013-06-09 18:01:00,66.3,63.9,29.74,SE,139,0.0,0.0,92,0.00,,BKN100,0.42,VWS V14.01,2013-06-09 23:01:00,
2013-06-09 18:03:00,66.3,63.9,29.74,SE,139,0.0,0.0,92,0.00,,-RA,0.42,VWS V14.01,2013-06-09 23:03:00,
2013-06-09 18:04:00,66.3,63.9,29.74,SE,139,0.0,0.0,92,0.00,,-RA,0.42,VWS V14.01,2013-06-09 23:04:00,
2013-06-09 18:05:00,66.3,63.9,29.74,SE,139,0.0,0.0,92,0.00,,-RA,0.42,VWS V14.01,2013-06-09 23:05:00,
2013-06-09 18:06:00,66.5,64.1,29.74,SE,139,0.0,0.0,92,0.00,,-RA,0.42,VWS V14.01,2013-06-09 23:06:00,
2013-06-09 18:08:00,66.5,64.1,29.74,SE,139,0.0,0.0,92,0.00,,-RA,0.42,VWS V14.01,2013-06-09 23:08:00,
2013-06-09 18:09:00,66.3,63.9,29.74,SE,139,0.0,0.0,92,0.00,,-RA,0.42,VWS V14.01,2013-06-09 23:09:00,
2013-06-09 18:10:00,66.3,63.6,29.74,SE,139,0.0,0.0,91,0.00,,-RA,0.42,VWS V14.01,2013-06-09 23:10:00,
2013-06-09 18:12:00,66.3,63.9,29.74,SE,139,0.0,0.0,92,0.00,,-RA,0.42,VWS V14.01,2013-06-09 23:12:00,
2013-06-09 18:13:00,66.3,63.9,29.74,SE,139,0.0,0.0,92,0.00,,-RA,0.42,VWS V14.01,2013-06-09 23:13:00,
2013-06-09 18:14:00,66.2,63.8,29.74,SE,139,0.0,0.0,92,0.00,,-RA,0.42,VWS V14.01,2013-06-09 23:14:00,
2013-06-09 18:15:00,66.2,63.8,29.76,SE,139,0.0,0.0,92,0.00,,-RA,0.42,VWS V14.01,2013-06-09 23:15:00,
2013-06-09 18:17:00,66.0,63.3,29.76,SE,139,0.0,0.0,91,0.00,,-RA,0.42,VWS V14.01,2013-06-09 23:17:00,
2013-06-09 18:18:00,65.9,63.2,29.76,SE,139,0.0,0.0,91,0.00,,-RA,0.42,VWS V14.01,2013-06-09 23:18:00,
2013-06-09 18:19:00,65.9,63.2,29.76,SE,139,0.0,0.0,91,0.00,,-RA,0.42,VWS V14.01,2013-06-09 23:19:00,
2013-06-09 18:20:00,65.9,63.2,29.76,SE,139,0.0,0.0,91,0.00,,-RA,0.42,VWS V14.01,2013-06-09 23:20:00,
2013-06-09 18:22:00,65.7,63.0,29.76,SE,139,0.0,0.0,91,0.00,,-RA,0.42,VWS V14.01,2013-06-09 23:22:00,
2013-06-09 18:23:00,65.7,63.0,29.76,SE,139,0.0,0.0,91,0.00,,-RA,0.42,VWS V14.01,2013-06-09 23:23:00,
2013-06-09 18:25:00,65.5,62.8,29.76,SE,139,0.0,0.0,91,0.00,,-RA,0.42,VWS V14.01,2013-06-09 23:25:00,
2013-06-09 18:27:00,65.4,62.7,29.76,SSE,149,0.0,0.0,91,0.00,,-RA,0.42,VWS V14.01,2013-06-09 23:27:00,
2013-06-09 18:28:00,65.2,62.5,29.76,SSE,149,0.0,0.0,91,0.00,,-RA,0.42,VWS V14.01,2013-06-09 23:28:00,
2013-06-09 18:30:00,65.2,62.5,29.77,SSE,150,0.0,1.0,91,0.01,,-RA,0.43,VWS V14.01,2013-06-09 23:30:00,
2013-06-09 18:32:00,65.1,62.1,29.77,SSE,159,0.0,2.0,90,0.01,,-RA,0.43,VWS V14.01,2013-06-09 23:32:00,
2013-06-09 18:33:00,64.9,61.9,29.77,SSE,162,0.0,2.0,90,0.01,,-RA,0.43,VWS V14.01,2013-06-09 23:33:00,
2013-06-09 18:35:00,64.9,61.9,29.77,SSE,162,0.0,2.0,90,0.01,,-RA,0.43,VWS V14.01,2013-06-09 23:35:00,
2013-06-09 18:37:00,65.1,62.1,29.77,SSE,162,0.0,2.0,90,0.01,,-RA,0.43,VWS V14.01,2013-06-09 23:37:00,
2013-06-09 18:39:00,65.1,62.1,29.77,SSE,151,0.0,2.0,90,0.01,,-RA,0.43,VWS V14.01,2013-06-09 23:39:00,
2013-06-09 18:40:00,65.2,62.2,29.77,SE,142,0.0,2.0,90,0.01,,-RA,0.43,VWS V14.01,2013-06-09 23:40:00,
2013-06-09 18:42:00,65.2,62.2,29.77,SE,146,0.0,2.0,90,0.01,,-RA,0.43,VWS V14.01,2013-06-09 23:42:00,
2013-06-09 18:44:00,65.1,62.1,29.77,SSE,155,0.0,2.0,90,0.01,,-RA,0.43,VWS V14.01,2013-06-09 23:44:00,
2013-06-09 18:45:00,65.1,62.1,29.76,SSE,155,0.0,2.0,90,0.01,,-RA,0.43,VWS V14.01,2013-06-09 23:45:00,
2013-06-09 18:46:00,65.1,62.1,29.76,SSE,155,0.0,2.0,90,0.01,,-RA,0.43,VWS V14.01,2013-06-09 23:46:00,
2013-06-09 18:47:00,65.2,62.2,29.76,SSE,155,0.0,2.0,90,0.01,,-RA,0.43,VWS V14.01,2013-06-09 23:47:00,
2013-06-09 18:49:00,65.2,62.2,29.76,SSE,155,0.0,2.0,90,0.01,,-RA,0.43,VWS V14.01,2013-06-09 23:49:00,
2013-06-09 18:50:00,65.2,62.2,29.76,SSE,155,0.0,2.0,90,0.01,,-RA,0.43,VWS V14.01,2013-06-09 23:50:00,
2013-06-09 18:51:00,65.4,62.4,29.76,SSE,155,0.0,2.0,90,0.01,,-RA,0.43,VWS V14.01,2013-06-09 23:51:00,
2013-06-09 18:52:00,65.4,62.4,29.76,SSE,155,0.0,2.0,90,0.01,,-RA,0.43,VWS V14.01,2013-06-09 23:52:00,
2013-06-09 18:53:00,65.4,62.1,29.76,SSE,155,0.0,2.0,89,0.01,,-RA,0.43,VWS V14.01,2013-06-09 23:53:00,
2013-06-09 18:54:00,65.4,62.1,29.76,SSE,155,0.0,2.0,89,0.01,,-RA,0.43,VWS V14.01,2013-06-09 23:54:00,
2013-06-09 18:56:00,65.4,62.1,29.76,SSE,155,0.0,2.0,89,0.01,,-RA,0.43,VWS V14.01,2013-06-09 23:56:00,
2013-06-09 18:57:00,65.4,62.4,29.76,SSE,155,0.0,2.0,90,0.01,,-RA,0.43,VWS V14.01,2013-06-09 23:57:00,
2013-06-09 18:58:00,65.5,62.5,29.76,SSE,155,0.0,2.0,90,0.01,,-RA,0.43,VWS V14.01,2013-06-09 23:58:00,
2013-06-09 19:00:00,65.5,62.2,29.76,SSE,155,0.0,2.0,89,0.01,,-RA,0.43,VWS V14.01,2013-06-10 00:00:00,
2013-06-09 19:01:00,65.5,62.5,29.76,SSE,155,0.0,0.0,90,0.01,,SCT120,0.43,VWS V14.01,2013-06-10 00:01:00,
2013-06-09 19:02:00,65.7,62.7,29.76,SSE,155,0.0,0.0,90,0.01,,SCT120,0.43,VWS V14.01,2013-06-10 00:02:00,
2013-06-09 19:03:00,65.7,62.7,29.76,SSE,155,0.0,0.0,90,0.01,,SCT120,0.43,VWS V14.01,2013-06-10 00:03:00,
2013-06-09 19:05:00,65.5,62.2,29.76,SSE,155,0.0,0.0,89,0.01,,SCT120,0.43,VWS V14.01,2013-06-10 00:05:00,
2013-06-09 19:06:00,65.5,62.2,29.76,SSE,155,0.0,0.0,89,0.01,,SCT120,0.43,VWS V14.01,2013-06-10 00:06:00,
2013-06-09 19:08:00,65.5,62.5,29.76,SSE,158,0.0,1.0,90,0.01,,SCT120,0.43,VWS V14.01,2013-06-10 00:08:00,
2013-06-09 19:10:00,65.7,62.7,29.76,SSE,158,0.0,1.0,90,0.01,,SCT120,0.43,VWS V14.01,2013-06-10 00:10:00,
2013-06-09 19:11:00,65.9,62.9,29.76,SSE,158,0.0,1.0,90,0.01,,SCT120,0.43,VWS V14.01,2013-06-10 00:11:00,
2013-06-09 19:13:00,66.0,63.0,29.76,SSE,158,0.0,1.0,90,0.01,,SCT120,0.43,VWS V14.01,2013-06-10 00:13:00,
2013-06-09 19:15:00,65.9,62.6,29.76,SSE,158,0.0,1.0,89,0.01,,SCT120,0.43,VWS V14.01,2013-06-10 00:15:00,
2013-06-09 19:16:00,65.9,62.6,29.76,SSE,158,0.0,1.0,89,0.01,,SCT120,0.43,VWS V14.01,2013-06-10 00:16:00,
2013-06-09 19:18:00,65.9,62.6,29.76,SSE,158,0.0,1.0,89,0.01,,SCT120,0.43,VWS V14.01,2013-06-10 00:18:00,
2013-06-09 19:19:00,65.9,62.6,29.76,SSE,158,0.0,1.0,89,0.01,,SCT120,0.43,VWS V14.01,2013-06-10 00:19:00,
2013-06-09 19:20:00,66.0,62.7,29.76,SSE,158,0.0,1.0,89,0.01,,SCT120,0.43,VWS V14.01,2013-06-10 00:20:00,
2013-06-09 19:21:00,66.0,62.7,29.76,SSE,158,0.0,1.0,89,0.01,,SCT120,0.43,VWS V14.01,2013-06-10 00:21:00,
2013-06-09 19:23:00,65.9,62.2,29.76,SSE,158,0.0,1.0,88,0.01,,SCT120,0.43,VWS V14.01,2013-06-10 00:23:00,
2013-06-09 19:24:00,66.0,62.3,29.76,SSE,158,0.0,1.0,88,0.01,,SCT120,0.43,VWS V14.01,2013-06-10 00:24:00,
2013-06-09 19:25:00,66.0,62.7,29.76,SSE,158,0.0,1.0,89,0.01,,SCT120,0.43,VWS V14.01,2013-06-10 00:25:00,
2013-06-09 19:27:00,66.0,62.3,29.76,SSE,158,0.0,1.0,88,0.01,,SCT120,0.43,VWS V14.01,2013-06-10 00:27:00,
2013-06-09 19:29:00,66.0,62.3,29.76,SSE,158,0.0,1.0,88,0.01,,SCT120,0.43,VWS V14.01,2013-06-10 00:29:00,
2013-06-09 19:30:00,66.0,62.3,29.75,SSE,158,0.0,1.0,88,0.01,,SCT120,0.43,VWS V14.01,2013-06-10 00:30:00,
2013-06-09 19:32:00,66.2,62.5,29.75,SSE,158,0.0,0.0,88,0.00,,BKN110,0.43,VWS V14.01,2013-06-10 00:32:00,
2013-06-09 19:35:00,66.0,62.0,29.75,South,186,0.0,5.0,87,0.00,,BKN110,0.43,VWS V14.01,2013-06-10 00:35:00,
2013-06-09 19:37:00,66.0,62.0,29.75,South,186,2.0,5.0,87,0.00,,BKN110,0.43,VWS V14.01,2013-06-10 00:37:00,
2013-06-09 19:40:00,65.9,61.9,29.75,SSW,192,3.0,5.0,87,0.00,,BKN110,0.43,VWS V14.01,2013-06-10 00:40:00,
2013-06-09 19:41:00,65.9,61.9,29.75,SSW,192,0.0,5.0,87,0.00,,BKN110,0.43,VWS V14.01,2013-06-10 00:41:00,
2013-06-09 19:42:00,66.0,62.0,29.75,SSW,192,0.0,5.0,87,0.00,,BKN110,0.43,VWS V14.01,2013-06-10 00:42:00,
2013-06-09 19:45:00,66.0,62.0,29.75,SSW,192,0.0,5.0,87,0.00,,BKN110,0.43,VWS V14.01,2013-06-10 00:45:00,
2013-06-09 19:46:00,66.0,62.0,29.75,SSW,192,0.0,5.0,87,0.00,,BKN110,0.43,VWS V14.01,2013-06-10 00:46:00,
2013-06-09 19:47:00,66.0,62.0,29.75,SSW,192,0.0,5.0,87,0.00,,BKN110,0.43,VWS V14.01,2013-06-10 00:47:00,
2013-06-09 19:50:00,66.0,62.0,29.75,South,188,1.0,5.0,87,0.00,,BKN110,0.43,VWS V14.01,2013-06-10 00:50:00,
2013-06-09 19:51:00,65.9,61.9,29.75,South,188,0.0,5.0,87,0.00,,BKN110,0.43,VWS V14.01,2013-06-10 00:51:00,
2013-06-09 19:52:00,65.9,61.9,29.75,South,188,0.0,5.0,87,0.00,,BKN110,0.43,VWS V14.01,2013-06-10 00:52:00,
2013-06-09 19:53:00,65.9,61.9,29.75,South,188,0.0,5.0,87,0.00,,BKN110,0.43,VWS V14.01,2013-06-10 00:53:00,
2013-06-09 19:55:00,65.9,61.9,29.75,South,188,0.0,5.0,87,0.00,,BKN110,0.43,VWS V14.01,2013-06-10 00:55:00,
2013-06-09 19:56:00,65.9,61.9,29.75,South,188,0.0,5.0,87,0.00,,BKN110,0.43,VWS V14.01,2013-06-10 00:56:00,
2013-06-09 19:57:00,65.7,61.7,29.75,South,188,0.0,5.0,87,0.00,,BKN110,0.43,VWS V14.01,2013-06-10 00:57:00,
2013-06-09 19:58:00,65.7,61.7,29.75,South,188,0.0,5.0,87,0.00,,BKN110,0.43,VWS V14.01,2013-06-10 00:58:00,
2013-06-09 20:00:00,65.7,61.7,29.74,South,188,0.0,5.0,87,0.00,,SCT120,0.43,VWS V14.01,2013-06-10 01:00:00,
2013-06-09 20:01:00,65.7,61.7,29.74,South,188,0.0,5.0,87,0.00,,BKN110,0.43,VWS V14.01,2013-06-10 01:01:00,
2013-06-09 20:02:00,65.7,62.0,29.74,South,188,0.0,0.0,88,0.00,,BKN110,0.43,VWS V14.01,2013-06-10 01:02:00,
2013-06-09 20:03:00,65.7,62.0,29.74,South,188,0.0,0.0,88,0.00,,BKN110,0.43,VWS V14.01,2013-06-10 01:03:00,
2013-06-09 20:06:00,65.5,61.9,29.74,South,188,0.0,0.0,88,0.00,,BKN110,0.43,VWS V14.01,2013-06-10 01:06:00,
2013-06-09 20:07:00,65.5,61.9,29.74,South,188,0.0,0.0,88,0.00,,BKN110,0.43,VWS V14.01,2013-06-10 01:07:00,
2013-06-09 20:08:00,65.5,61.9,29.74,South,188,0.0,0.0,88,0.00,,BKN110,0.43,VWS V14.01,2013-06-10 01:08:00,
2013-06-09 20:26:00,64.6,61.3,29.74,South,188,0.0,0.0,89,0.00,,,0.43,VWS V14.01,2013-06-10 01:26:00,
2013-06-09 20:27:00,64.6,61.3,29.74,South,188,0.0,0.0,89,0.00,,,0.43,VWS V14.01,2013-06-10 01:27:00,
2013-06-09 20:30:00,64.4,61.1,29.74,South,188,0.0,0.0,89,0.00,,,0.43,VWS V14.01,2013-06-10 01:30:00,
2013-06-09 20:31:00,64.4,61.1,29.74,South,188,0.0,0.0,89,0.00,,SCT120,0.43,VWS V14.01,2013-06-10 01:31:00,
2013-06-09 20:32:00,64.4,61.1,29.74,South,188,0.0,0.0,89,0.00,,SCT120,0.43,VWS V14.01,2013-06-10 01:32:00,
2013-06-09 20:37:00,64.2,61.2,29.74,South,188,0.0,0.0,90,0.00,,SCT120,0.43,VWS V14.01,2013-06-10 01:37:00,
2013-06-09 20:42:00,64.1,61.1,29.74,South,188,0.0,0.0,90,0.00,,SCT120,0.43,VWS V14.01,2013-06-10 01:42:00,
2013-06-09 20:43:00,64.1,61.1,29.74,South,188,0.0,0.0,90,0.00,,SCT120,0.43,VWS V14.01,2013-06-10 01:43:00,
2013-06-09 20:47:00,63.9,60.9,29.74,South,188,0.0,0.0,90,0.00,,SCT120,0.43,VWS V14.01,2013-06-10 01:47:00,
2013-06-09 20:48:00,63.9,60.9,29.74,South,188,0.0,0.0,90,0.00,,SCT120,0.43,VWS V14.01,2013-06-10 01:48:00,
2013-06-09 20:52:00,63.8,61.1,29.74,South,188,1.0,1.0,91,0.00,,SCT120,0.43,VWS V14.01,2013-06-10 01:52:00,
2013-06-09 20:53:00,63.8,61.1,29.74,South,188,0.0,1.0,91,0.00,,SCT120,0.43,VWS V14.01,2013-06-10 01:53:00,
2013-06-09 20:57:00,63.6,60.9,29.74,South,188,0.0,1.0,91,0.00,,SCT120,0.43,VWS V14.01,2013-06-10 01:57:00,
2013-06-09 20:58:00,63.6,60.9,29.74,South,188,0.0,1.0,91,0.00,,SCT120,0.43,VWS V14.01,2013-06-10 01:58:00,
2013-06-09 21:00:00,63.4,60.7,29.74,South,188,0.0,1.0,91,0.00,,,0.43,VWS V14.01,2013-06-10 02:00:00,
2013-06-09 21:02:00,63.4,60.7,29.74,South,188,0.0,0.0,91,0.00,,SCT095,0.43,VWS V14.01,2013-06-10 02:02:00,
2013-06-09 21:03:00,63.4,60.7,29.74,South,188,0.0,0.0,91,0.00,,SCT095,0.43,VWS V14.01,2013-06-10 02:03:00,
2013-06-09 21:07:00,63.3,60.9,29.74,South,188,0.0,0.0,92,0.00,,SCT095,0.43,VWS V14.01,2013-06-10 02:07:00,
2013-06-09 21:08:00,63.3,60.9,29.74,South,188,0.0,0.0,92,0.00,,SCT095,0.43,VWS V14.01,2013-06-10 02:08:00,
2013-06-09 21:12:00,63.3,60.9,29.74,South,188,0.0,0.0,92,0.00,,SCT095,0.43,VWS V14.01,2013-06-10 02:12:00,
2013-06-09 21:13:00,63.3,60.9,29.74,South,188,0.0,0.0,92,0.00,,SCT095,0.43,VWS V14.01,2013-06-10 02:13:00,
2013-06-09 21:14:00,63.3,60.9,29.74,South,188,0.0,0.0,92,0.00,,SCT095,0.43,VWS V14.01,2013-06-10 02:14:00,
2013-06-09 21:17:00,63.3,60.9,29.75,South,188,0.0,0.0,92,0.00,,SCT095,0.43,VWS V14.01,2013-06-10 02:17:00,
2013-06-09 21:18:00,63.3,60.9,29.75,South,188,0.0,1.0,92,0.00,,SCT095,0.43,VWS V14.01,2013-06-10 02:18:00,
2013-06-09 21:19:00,63.3,60.9,29.75,South,188,0.0,1.0,92,0.00,,SCT095,0.43,VWS V14.01,2013-06-10 02:19:00,
2013-06-09 21:23:00,63.3,60.9,29.75,South,188,0.0,1.0,92,0.00,,SCT095,0.43,VWS V14.01,2013-06-10 02:23:00,
2013-06-09 21:24:00,63.3,60.9,29.75,South,188,0.0,1.0,92,0.00,,SCT095,0.43,VWS V14.01,2013-06-10 02:24:00,
2013-06-09 21:28:00,63.3,60.9,29.75,South,188,0.0,1.0,92,0.00,,SCT095,0.43,VWS V14.01,2013-06-10 02:28:00,
2013-06-09 21:29:00,63.3,60.9,29.75,South,188,0.0,1.0,92,0.00,,SCT095,0.43,VWS V14.01,2013-06-10 02:29:00,
2013-06-09 21:30:00,63.3,60.9,29.75,South,188,0.0,1.0,92,0.00,,,0.43,VWS V14.01,2013-06-10 02:30:00,
2013-06-09 21:33:00,63.3,60.9,29.75,South,188,0.0,0.0,92,0.00,,SCT095,0.43,VWS V14.01,2013-06-10 02:33:00,
2013-06-09 21:34:00,63.3,60.9,29.75,South,188,0.0,0.0,92,0.00,,SCT095,0.43,VWS V14.01,2013-06-10 02:34:00,
2013-06-09 21:35:00,63.1,60.7,29.75,South,188,0.0,0.0,92,0.00,,SCT095,0.43,VWS V14.01,2013-06-10 02:35:00,
2013-06-09 21:38:00,63.1,60.7,29.75,South,188,0.0,0.0,92,0.00,,SCT095,0.43,VWS V14.01,2013-06-10 02:38:00,
2013-06-09 21:39:00,63.1,60.7,29.75,South,188,0.0,0.0,92,0.00,,SCT095,0.43,VWS V14.01,2013-06-10 02:39:00,
2013-06-09 21:40:00,63.1,60.7,29.75,South,188,0.0,0.0,92,0.00,,SCT095,0.43,VWS V14.01,2013-06-10 02:40:00,
2013-06-09 21:43:00,63.0,60.6,29.75,South,188,0.0,0.0,92,0.00,,SCT095,0.43,VWS V14.01,2013-06-10 02:43:00,
2013-06-09 21:44:00,63.0,60.6,29.75,South,188,0.0,0.0,92,0.00,,SCT095,0.43,VWS V14.01,2013-06-10 02:44:00,
2013-06-09 21:45:00,63.0,60.6,29.76,South,188,0.0,0.0,92,0.00,,SCT095,0.43,VWS V14.01,2013-06-10 02:45:00,
2013-06-09 21:48:00,62.8,60.5,29.76,South,188,0.0,0.0,92,0.00,,SCT095,0.43,VWS V14.01,2013-06-10 02:48:00,
2013-06-09 21:49:00,62.8,60.5,29.76,South,188,0.0,0.0,92,0.00,,SCT095,0.43,VWS V14.01,2013-06-10 02:49:00,
2013-06-09 21:50:00,62.8,60.5,29.76,South,188,0.0,0.0,92,0.00,,SCT095,0.43,VWS V14.01,2013-06-10 02:50:00,
2013-06-09 21:53:00,62.8,60.5,29.76,South,188,0.0,0.0,92,0.00,,SCT095,0.43,VWS V14.01,2013-06-10 02:53:00,
2013-06-09 21:54:00,62.8,60.5,29.76,South,188,0.0,0.0,92,0.00,,SCT095,0.43,VWS V14.01,2013-06-10 02:54:00,
2013-06-09 21:55:00,62.8,60.5,29.76,South,188,0.0,0.0,92,0.00,,SCT095,0.43,VWS V14.01,2013-06-10 02:55:00,
2013-06-09 21:58:00,62.6,60.5,29.76,South,188,0.0,0.0,93,0.00,,SCT095,0.43,VWS V14.01,2013-06-10 02:58:00,
2013-06-09 21:59:00,62.6,60.5,29.76,South,188,0.0,0.0,93,0.00,,SCT095,0.43,VWS V14.01,2013-06-10 02:59:00,
2013-06-09 22:00:00,62.6,60.5,29.75,South,188,0.0,0.0,93,0.00,,SCT095,0.43,VWS V14.01,2013-06-10 03:00:00,
2013-06-09 22:03:00,62.6,60.5,29.75,South,188,0.0,0.0,93,0.00,,CLR,0.43,VWS V14.01,2013-06-10 03:03:00,
2013-06-09 22:04:00,62.6,60.5,29.75,South,188,0.0,0.0,93,0.00,,CLR,0.43,VWS V14.01,2013-06-10 03:04:00,
2013-06-09 22:05:00,62.6,60.5,29.75,South,188,0.0,0.0,93,0.00,,CLR,0.43,VWS V14.01,2013-06-10 03:05:00,
2013-06-09 22:09:00,62.5,60.5,29.75,South,188,0.0,1.0,93,0.00,,CLR,0.43,VWS V14.01,2013-06-10 03:09:00,
2013-06-09 22:10:00,62.5,60.5,29.75,South,188,0.0,1.0,93,0.00,,CLR,0.43,VWS V14.01,2013-06-10 03:10:00,
2013-06-09 22:14:00,62.5,60.5,29.75,South,188,0.0,1.0,93,0.00,,CLR,0.43,VWS V14.01,2013-06-10 03:14:00,
2013-06-09 22:15:00,62.5,60.5,29.75,South,188,0.0,1.0,93,0.00,,CLR,0.43,VWS V14.01,2013-06-10 03:15:00,
2013-06-09 22:19:00,62.5,60.5,29.75,South,188,0.0,1.0,93,0.00,,CLR,0.43,VWS V14.01,2013-06-10 03:19:00,
2013-06-09 22:20:00,62.5,60.5,29.75,South,188,0.0,1.0,93,0.00,,CLR,0.43,VWS V14.01,2013-06-10 03:20:00,
2013-06-09 22:21:00,62.5,60.5,29.75,South,188,0.0,1.0,93,0.00,,CLR,0.43,VWS V14.01,2013-06-10 03:21:00,
2013-06-09 22:24:00,62.5,60.5,29.75,South,188,0.0,1.0,93,0.00,,CLR,0.43,VWS V14.01,2013-06-10 03:24:00,
2013-06-09 22:25:00,62.5,60.5,29.75,South,188,0.0,1.0,93,0.00,,CLR,0.43,VWS V14.01,2013-06-10 03:25:00,
2013-06-09 22:27:00,62.5,60.5,29.75,South,188,0.0,1.0,93,0.00,,CLR,0.43,VWS V14.01,2013-06-10 03:27:00,
2013-06-09 22:29:00,62.5,60.5,29.75,South,189,0.0,1.0,93,0.00,,CLR,0.43,VWS V14.01,2013-06-10 03:29:00,
2013-06-09 22:30:00,62.5,60.5,29.75,South,189,0.0,1.0,93,0.00,,CLR,0.43,VWS V14.01,2013-06-10 03:30:00,
2013-06-09 22:32:00,62.5,60.5,29.75,South,189,0.0,0.0,93,0.00,,CLR,0.43,VWS V14.01,2013-06-10 03:32:00,
2013-06-09 22:35:00,62.5,60.5,29.75,South,189,0.0,0.0,93,0.00,,CLR,0.43,VWS V14.01,2013-06-10 03:35:00,
2013-06-09 22:36:00,62.5,60.5,29.75,South,189,0.0,0.0,93,0.00,,CLR,0.43,VWS V14.01,2013-06-10 03:36:00,
2013-06-09 22:37:00,62.3,60.6,29.75,South,189,0.0,0.0,94,0.00,,CLR,0.43,VWS V14.01,2013-06-10 03:37:00,
2013-06-09 22:40:00,62.3,60.6,29.75,South,189,0.0,0.0,94,0.00,,CLR,0.43,VWS V14.01,2013-06-10 03:40:00,
2013-06-09 22:41:00,62.3,60.6,29.75,South,189,0.0,0.0,94,0.00,,CLR,0.43,VWS V14.01,2013-06-10 03:41:00,
2013-06-09 22:42:00,62.3,60.6,29.75,South,189,0.0,0.0,94,0.00,,CLR,0.43,VWS V14.01,2013-06-10 03:42:00,
2013-06-09 22:45:00,62.3,60.6,29.75,South,189,0.0,0.0,94,0.00,,CLR,0.43,VWS V14.01,2013-06-10 03:45:00,
2013-06-09 22:46:00,62.3,60.6,29.75,South,189,1.0,2.0,94,0.00,,CLR,0.43,VWS V14.01,2013-06-10 03:46:00,
2013-06-09 22:47:00,62.3,60.6,29.75,South,189,0.0,2.0,94,0.00,,CLR,0.43,VWS V14.01,2013-06-10 03:47:00,
2013-06-09 22:48:00,62.3,60.6,29.75,South,189,0.0,2.0,94,0.00,,CLR,0.43,VWS V14.01,2013-06-10 03:48:00,
2013-06-09 22:50:00,62.3,60.6,29.75,South,189,0.0,2.0,94,0.00,,CLR,0.43,VWS V14.01,2013-06-10 03:50:00,
2013-06-09 22:51:00,62.3,60.6,29.75,South,189,0.0,2.0,94,0.00,,CLR,0.43,VWS V14.01,2013-06-10 03:51:00,
2013-06-09 22:52:00,62.3,60.6,29.75,South,189,0.0,2.0,94,0.00,,CLR,0.43,VWS V14.01,2013-06-10 03:52:00,
2013-06-09 22:53:00,62.3,60.6,29.75,South,189,0.0,2.0,94,0.00,,CLR,0.43,VWS V14.01,2013-06-10 03:53:00,
2013-06-09 22:55:00,62.3,60.6,29.75,South,189,0.0,2.0,94,0.00,,CLR,0.43,VWS V14.01,2013-06-10 03:55:00,
2013-06-09 22:56:00,62.3,60.6,29.75,South,189,0.0,2.0,94,0.00,,CLR,0.43,VWS V14.01,2013-06-10 03:56:00,
2013-06-09 22:57:00,62.2,60.5,29.75,South,189,0.0,2.0,94,0.00,,CLR,0.43,VWS V14.01,2013-06-10 03:57:00,
2013-06-09 22:58:00,62.2,60.5,29.75,South,189,0.0,2.0,94,0.00,,CLR,0.43,VWS V14.01,2013-06-10 03:58:00,
2013-06-09 23:00:00,62.2,60.5,29.75,South,189,0.0,3.0,94,0.00,,CLR,0.43,VWS V14.01,2013-06-10 04:00:00,
2013-06-09 23:01:00,62.2,60.5,29.75,South,189,0.0,0.0,94,0.00,,CLR,0.43,VWS V14.01,2013-06-10 04:01:00,
2013-06-09 23:06:00,62.0,60.3,29.75,South,189,0.0,1.0,94,0.00,,CLR,0.43,VWS V14.01,2013-06-10 04:06:00,
2013-06-09 23:07:00,62.0,60.3,29.75,South,189,0.0,1.0,94,0.00,,CLR,0.43,VWS V14.01,2013-06-10 04:07:00,
2013-06-09 23:11:00,62.0,60.3,29.75,South,189,0.0,1.0,94,0.00,,CLR,0.43,VWS V14.01,2013-06-10 04:11:00,
2013-06-09 23:12:00,62.0,60.3,29.75,South,189,0.0,3.0,94,0.00,,CLR,0.43,VWS V14.01,2013-06-10 04:12:00,
2013-06-09 23:16:00,62.0,60.3,29.75,South,185,0.0,4.0,94,0.00,,CLR,0.43,VWS V14.01,2013-06-10 04:16:00,
2013-06-09 23:17:00,62.0,60.3,29.75,South,185,0.0,4.0,94,0.00,,CLR,0.43,VWS V14.01,2013-06-10 04:17:00,
2013-06-09 23:21:00,62.0,60.3,29.75,South,185,0.0,4.0,94,0.00,,CLR,0.43,VWS V14.01,2013-06-10 04:21:00,
2013-06-09 23:22:00,61.9,60.2,29.75,South,185,0.0,4.0,94,0.00,,CLR,0.43,VWS V14.01,2013-06-10 04:22:00,
2013-06-09 23:26:00,61.9,60.2,29.75,South,185,0.0,4.0,94,0.00,,CLR,0.43,VWS V14.01,2013-06-10 04:26:00,
2013-06-09 23:27:00,61.9,60.2,29.75,South,182,0.0,4.0,94,0.00,,CLR,0.43,VWS V14.01,2013-06-10 04:27:00,
2013-06-09 23:28:00,61.9,60.2,29.75,South,182,0.0,4.0,94,0.00,,CLR,0.43,VWS V14.01,2013-06-10 04:28:00,
2013-06-09 23:30:00,61.9,60.2,29.75,South,182,0.0,4.0,94,0.00,,,0.43,VWS V14.01,2013-06-10 04:30:00,
2013-06-09 23:32:00,61.9,60.2,29.75,South,182,0.0,0.0,94,0.00,,CLR,0.43,VWS V14.01,2013-06-10 04:32:00,
2013-06-09 23:33:00,61.9,60.2,29.75,South,183,0.0,0.0,94,0.00,,CLR,0.43,VWS V14.01,2013-06-10 04:33:00,
2013-06-09 23:37:00,61.9,60.5,29.75,South,182,0.0,1.0,95,0.00,,CLR,0.43,VWS V14.01,2013-06-10 04:37:00,
2013-06-09 23:38:00,61.9,60.5,29.75,South,182,0.0,1.0,95,0.00,,CLR,0.43,VWS V14.01,2013-06-10 04:38:00,
2013-06-09 23:42:00,62.0,60.6,29.75,SSE,165,0.0,3.0,95,0.00,,CLR,0.43,VWS V14.01,2013-06-10 04:42:00,
2013-06-09 23:43:00,62.0,60.6,29.75,SSE,165,0.0,3.0,95,0.00,,CLR,0.43,VWS V14.01,2013-06-10 04:43:00,
2013-06-09 23:47:00,61.9,60.5,29.74,South,169,0.0,3.0,95,0.00,,CLR,0.43,VWS V14.01,2013-06-10 04:47:00,
2013-06-09 23:48:00,61.9,60.5,29.74,South,169,0.0,3.0,95,0.00,,CLR,0.43,VWS V14.01,2013-06-10 04:48:00,
2013-06-09 23:52:00,61.9,60.5,29.74,SSW,194,1.0,4.0,95,0.00,,CLR,0.43,VWS V14.01,2013-06-10 04:52:00,
2013-06-09 23:53:00,61.9,60.5,29.74,SSW,195,0.0,4.0,95,0.00,,CLR,0.43,VWS V14.01,2013-06-10 04:53:00,
2013-06-09 23:54:00,61.9,60.5,29.74,SSW,195,0.0,4.0,95,0.00,,CLR,0.43,VWS V14.01,2013-06-10 04:54:00,
2013-06-09 23:57:00,61.9,60.5,29.74,South,191,0.0,4.0,95,0.00,,CLR,0.43,VWS V14.01,2013-06-10 04:57:00,
2013-06-09 23:58:00,61.9,60.5,29.74,South,191,0.0,4.0,95,0.00,,CLR,0.43,VWS V14.01,2013-06-10 04:58:00,
2013-06-09 23:59:00,61.9,60.5,29.74,South,191,0.0,4.0,95,0.00,,CLR,0.43,VWS V14.01,2013-06-10 04:59:00,